1000 dernières valeurs brutes
Date Temp Humidity Gust Pressure Rain
10 août 04:24 15.2°C 72% 2.1 km/h SE 1016.9 hPa 0 mm
10 août 04:23 15.3°C 72% 1.6 km/h SE 1016.8 hPa 0 mm
10 août 04:22 15.4°C 71% 2.1 km/h SE 1016.9 hPa 0 mm
10 août 04:21 15.6°C 71% 2.1 km/h ESE 1016.8 hPa 0 mm
10 août 04:20 15.6°C 71% 2.6 km/h E 1016.9 hPa 0 mm
10 août 04:19 15.7°C 71% 2.1 km/h ESE 1016.9 hPa 0 mm
10 août 04:18 15.5°C 71% 1.6 km/h ESE 1016.9 hPa 0 mm
10 août 04:17 15.5°C 71% 1.6 km/h SE 1016.9 hPa 0 mm
10 août 04:16 15.5°C 71% 1.6 km/h SE 1016.9 hPa 0 mm
10 août 04:15 15.5°C 71% 1.6 km/h ESE 1016.9 hPa 0 mm
10 août 04:14 15.6°C 72% 2.1 km/h ESE 1016.9 hPa 0 mm
10 août 04:13 15.6°C 71% 2.1 km/h E 1016.9 hPa 0 mm
10 août 04:12 15.7°C 71% 2.1 km/h SE 1016.9 hPa 0 mm
10 août 04:11 15.8°C 70% 2.1 km/h ESE 1016.9 hPa 0 mm
10 août 04:10 15.8°C 70% 2.1 km/h ESE 1016.9 hPa 0 mm
10 août 04:09 15.9°C 70% 2.6 km/h ESE 1016.9 hPa 0 mm
10 août 04:08 16.0°C 70% 3.2 km/h ESE 1016.9 hPa 0 mm
10 août 04:07 16.1°C 69% 2.1 km/h SE 1016.9 hPa 0 mm
10 août 04:06 16.3°C 68% 2.1 km/h SE 1016.9 hPa 0 mm
10 août 04:05 16.6°C 69% 2.1 km/h SSE 1016.8 hPa 0 mm
10 août 04:04 16.6°C 69% 1.6 km/h E 1016.8 hPa 0 mm
10 août 04:03 16.6°C 69% 1.6 km/h E 1016.8 hPa 0 mm
10 août 04:02 16.6°C 69% 1.6 km/h ESE 1016.9 hPa 0 mm
10 août 04:01 16.3°C 69% 1.6 km/h ESE 1016.8 hPa 0 mm
10 août 04:00 16.3°C 69% 1.1 km/h E 1016.9 hPa 0 mm
10 août 03:59 16.0°C 70% 1.6 km/h ESE 1016.8 hPa 0 mm
10 août 03:58 15.9°C 71% 2.1 km/h SE 1016.8 hPa 0 mm
10 août 03:57 15.9°C 71% 1.6 km/h ESE 1016.8 hPa 0 mm
10 août 03:56 15.8°C 71% 1.1 km/h SE 1016.8 hPa 0 mm
10 août 03:55 15.7°C 71% 0.0 km/h SE 1016.8 hPa 0 mm
10 août 03:54 15.7°C 71% 0.5 km/h SE 1016.8 hPa 0 mm
10 août 03:53 15.6°C 71% 0.0 km/h E 1016.8 hPa 0 mm
10 août 03:52 15.6°C 71% 1.1 km/h E 1016.8 hPa 0 mm
10 août 03:51 15.6°C 71% 1.1 km/h E 1016.8 hPa 0 mm
10 août 03:50 15.7°C 71% 1.1 km/h E 1016.8 hPa 0 mm
10 août 03:49 15.7°C 71% 1.1 km/h ESE 1016.7 hPa 0 mm
10 août 03:48 15.8°C 70% 1.6 km/h ESE 1016.8 hPa 0 mm
10 août 03:47 15.8°C 70% 1.1 km/h E 1016.7 hPa 0 mm
10 août 03:46 15.8°C 70% 2.1 km/h E 1016.8 hPa 0 mm
10 août 03:45 15.8°C 70% 1.6 km/h E 1016.7 hPa 0 mm
10 août 03:44 15.9°C 70% 2.1 km/h E 1016.7 hPa 0 mm
10 août 03:43 16.0°C 69% 2.6 km/h SSE 1016.7 hPa 0 mm
10 août 03:42 15.9°C 69% 2.1 km/h SE 1016.6 hPa 0 mm
10 août 03:41 15.9°C 69% 2.6 km/h SSE 1016.7 hPa 0 mm
10 août 03:40 15.8°C 70% 2.6 km/h SE 1016.7 hPa 0 mm
10 août 03:39 15.6°C 71% 3.2 km/h SE 1016.6 hPa 0 mm
10 août 03:38 15.6°C 71% 3.2 km/h SSE 1016.7 hPa 0 mm
10 août 03:37 15.7°C 70% 2.6 km/h S 1016.6 hPa 0 mm
10 août 03:36 15.8°C 69% 2.6 km/h S 1016.6 hPa 0 mm
10 août 03:35 15.8°C 69% 2.6 km/h S 1016.6 hPa 0 mm
10 août 03:34 15.8°C 70% 2.1 km/h SSE 1016.6 hPa 0 mm
10 août 03:33 15.8°C 70% 1.6 km/h SE 1016.6 hPa 0 mm
10 août 03:32 15.6°C 71% 1.6 km/h SE 1016.6 hPa 0 mm
10 août 03:31 15.6°C 71% 1.6 km/h E 1016.5 hPa 0 mm
10 août 03:30 15.6°C 71% 1.6 km/h SE 1016.6 hPa 0 mm
10 août 03:29 15.6°C 70% 1.6 km/h SE 1016.5 hPa 0 mm
10 août 03:28 15.7°C 70% 1.6 km/h ESE 1016.5 hPa 0 mm
10 août 03:27 15.9°C 69% 1.6 km/h E 1016.5 hPa 0 mm
10 août 03:26 15.9°C 69% 0.5 km/h E 1016.6 hPa 0 mm
10 août 03:25 15.9°C 69% 1.6 km/h SE 1016.5 hPa 0 mm
10 août 03:24 15.9°C 69% 1.6 km/h E 1016.5 hPa 0 mm
10 août 03:23 15.8°C 69% 1.6 km/h E 1016.5 hPa 0 mm
10 août 03:22 15.8°C 69% 1.6 km/h E 1016.5 hPa 0 mm
10 août 03:21 15.8°C 69% 1.6 km/h SE 1016.5 hPa 0 mm
10 août 03:20 15.8°C 69% 1.6 km/h SE 1016.6 hPa 0 mm
10 août 03:19 15.8°C 70% 1.6 km/h E 1016.6 hPa 0 mm
10 août 03:18 16.0°C 69% 1.1 km/h ESE 1016.6 hPa 0 mm
10 août 03:17 16.2°C 68% 1.1 km/h E 1016.6 hPa 0 mm
10 août 03:16 16.4°C 67% 1.1 km/h ESE 1016.6 hPa 0 mm
10 août 03:15 16.7°C 67% 1.1 km/h E 1016.6 hPa 0 mm
10 août 03:14 16.9°C 66% 1.1 km/h E 1016.6 hPa 0 mm
10 août 03:13 17.1°C 65% 1.1 km/h SE 1016.5 hPa 0 mm
10 août 03:12 17.3°C 64% 1.6 km/h ESE 1016.5 hPa 0 mm
10 août 03:11 17.4°C 64% 1.1 km/h E 1016.5 hPa 0 mm
10 août 03:10 17.6°C 63% 1.6 km/h ESE 1016.5 hPa 0 mm
10 août 03:09 17.8°C 62% 1.6 km/h SE 1016.5 hPa 0 mm
10 août 03:08 18.0°C 62% 1.1 km/h SE 1016.5 hPa 0 mm
10 août 03:07 17.9°C 62% 1.1 km/h SSE 1016.5 hPa 0 mm
10 août 03:06 17.9°C 62% 1.6 km/h ESE 1016.5 hPa 0 mm
10 août 03:05 17.9°C 62% 2.1 km/h SE 1016.5 hPa 0 mm
10 août 03:04 17.8°C 63% 2.1 km/h SE 1016.6 hPa 0 mm
10 août 03:03 17.5°C 64% 2.1 km/h ESE 1016.5 hPa 0 mm
10 août 03:02 16.9°C 66% 1.6 km/h SE 1016.5 hPa 0 mm
10 août 03:01 16.0°C 69% 1.1 km/h ESE 1016.5 hPa 0 mm
10 août 03:00 15.9°C 70% 1.1 km/h ESE 1016.6 hPa 0 mm
10 août 02:59 16.0°C 69% 1.1 km/h SE 1016.6 hPa 0 mm
10 août 02:58 16.0°C 69% 1.6 km/h ESE 1016.6 hPa 0 mm
10 août 02:57 16.2°C 68% 2.1 km/h SE 1016.6 hPa 0 mm
10 août 02:56 16.2°C 68% 2.6 km/h E 1016.6 hPa 0 mm
10 août 02:55 16.3°C 68% 2.6 km/h ESE 1016.6 hPa 0 mm
10 août 02:54 16.4°C 67% 2.6 km/h E 1016.6 hPa 0 mm
10 août 02:53 16.5°C 67% 1.6 km/h SSE 1016.6 hPa 0 mm
10 août 02:52 16.5°C 67% 1.6 km/h ESE 1016.6 hPa 0 mm
10 août 02:51 16.3°C 67% 1.6 km/h E 1016.6 hPa 0 mm
10 août 02:50 16.3°C 67% 2.6 km/h SSE 1016.6 hPa 0 mm
10 août 02:49 16.3°C 67% 2.1 km/h SE 1016.6 hPa 0 mm
10 août 02:48 16.3°C 68% 0.0 km/h E 1016.6 hPa 0 mm
10 août 02:47 16.2°C 68% 1.1 km/h ESE 1016.7 hPa 0 mm
10 août 02:46 16.2°C 68% 1.1 km/h SSE 1016.7 hPa 0 mm
10 août 02:45 16.1°C 68% 2.6 km/h E 1016.7 hPa 0 mm
10 août 02:44 15.9°C 68% 3.2 km/h SE 1016.6 hPa 0 mm
10 août 02:43 15.9°C 68% 3.2 km/h S 1016.7 hPa 0 mm
10 août 02:42 15.9°C 68% 2.6 km/h E 1016.7 hPa 0 mm
10 août 02:41 15.9°C 68% 3.7 km/h SSE 1016.7 hPa 0 mm
10 août 02:40 16.0°C 68% 4.2 km/h S 1016.7 hPa 0 mm
10 août 02:39 15.9°C 69% 4.2 km/h SE 1016.6 hPa 0 mm
10 août 02:38 16.0°C 68% 3.7 km/h S 1016.7 hPa 0 mm
10 août 02:37 15.9°C 68% 3.7 km/h S 1016.7 hPa 0 mm
10 août 02:36 15.9°C 68% 2.1 km/h S 1016.7 hPa 0 mm
10 août 02:35 15.8°C 69% 2.1 km/h S 1016.7 hPa 0 mm
10 août 02:34 15.8°C 69% 3.2 km/h S 1016.7 hPa 0 mm
10 août 02:33 15.7°C 69% 3.2 km/h SSO 1016.6 hPa 0 mm
10 août 02:32 15.8°C 69% 3.2 km/h S 1016.7 hPa 0 mm
10 août 02:31 15.7°C 69% 3.2 km/h E 1016.7 hPa 0 mm
10 août 02:30 15.7°C 70% 0.0 km/h E 1016.6 hPa 0 mm
10 août 02:29 15.7°C 70% 0.5 km/h E 1016.6 hPa 0 mm
10 août 02:28 15.7°C 70% 0.0 km/h SE 1016.7 hPa 0 mm
10 août 02:27 15.7°C 70% 0.5 km/h SE 1016.6 hPa 0 mm
10 août 02:26 15.7°C 70% 1.1 km/h ESE 1016.6 hPa 0 mm
10 août 02:25 15.8°C 70% 1.1 km/h ESE 1016.6 hPa 0 mm
10 août 02:24 15.8°C 70% 0.5 km/h ESE 1016.6 hPa 0 mm
10 août 02:23 15.8°C 70% 1.1 km/h E 1016.6 hPa 0 mm
10 août 02:22 15.9°C 69% 1.1 km/h SE 1016.6 hPa 0 mm
10 août 02:21 15.9°C 70% 0.0 km/h ESE 1016.6 hPa 0 mm
10 août 02:20 16.0°C 70% 0.0 km/h ESE 1016.6 hPa 0 mm
10 août 02:19 16.0°C 69% 0.5 km/h E 1016.6 hPa 0 mm
10 août 02:18 16.0°C 69% 0.5 km/h ESE 1016.6 hPa 0 mm
10 août 02:17 15.9°C 70% 1.1 km/h SE 1016.6 hPa 0 mm
10 août 02:16 15.9°C 70% 1.6 km/h E 1016.6 hPa 0 mm
10 août 02:15 16.0°C 69% 2.1 km/h SSO 1016.6 hPa 0 mm
10 août 02:14 16.0°C 69% 2.1 km/h S 1016.6 hPa 0 mm
10 août 02:13 16.1°C 69% 2.6 km/h SSE 1016.6 hPa 0 mm
10 août 02:12 16.1°C 69% 2.6 km/h ESE 1016.7 hPa 0 mm
10 août 02:11 16.1°C 68% 1.6 km/h SE 1016.7 hPa 0 mm
10 août 02:10 16.1°C 68% 0.0 km/h ESE 1016.6 hPa 0 mm
10 août 02:09 16.1°C 67% 1.6 km/h E 1016.6 hPa 0 mm
10 août 02:08 16.1°C 67% 1.6 km/h ESE 1016.7 hPa 0 mm
10 août 02:07 16.1°C 68% 1.1 km/h SE 1016.7 hPa 0 mm
10 août 02:06 16.1°C 68% 1.1 km/h ESE 1016.7 hPa 0 mm
10 août 02:05 16.0°C 68% 0.0 km/h SE 1016.7 hPa 0 mm
10 août 02:04 16.0°C 68% 0.0 km/h SE 1016.7 hPa 0 mm
10 août 02:03 16.1°C 69% 1.1 km/h E 1016.7 hPa 0 mm
10 août 02:02 16.1°C 68% 1.6 km/h SE 1016.7 hPa 0 mm
10 août 02:01 16.1°C 68% 1.6 km/h ESE 1016.7 hPa 0 mm
10 août 02:00 16.0°C 68% 2.1 km/h E 1016.7 hPa 0 mm
10 août 01:59 16.0°C 68% 2.1 km/h E 1016.7 hPa 0 mm
10 août 01:58 16.0°C 68% 3.2 km/h E 1016.7 hPa 0 mm
10 août 01:57 16.0°C 68% 2.6 km/h ESE 1016.7 hPa 0 mm
10 août 01:56 16.0°C 68% 2.6 km/h ESE 1016.7 hPa 0 mm
10 août 01:55 16.0°C 68% 2.1 km/h ESE 1016.7 hPa 0 mm
10 août 01:54 16.1°C 68% 2.1 km/h E 1016.7 hPa 0 mm
10 août 01:53 16.1°C 68% 2.1 km/h E 1016.7 hPa 0 mm
10 août 01:52 16.1°C 68% 3.7 km/h SSE 1016.8 hPa 0 mm
10 août 01:51 16.1°C 68% 3.7 km/h SSE 1016.8 hPa 0 mm
10 août 01:50 16.2°C 68% 3.7 km/h SSO 1016.8 hPa 0 mm
10 août 01:49 16.2°C 67% 4.2 km/h SE 1016.8 hPa 0 mm
10 août 01:48 16.2°C 66% 3.7 km/h SSO 1016.8 hPa 0 mm
10 août 01:47 16.3°C 67% 3.7 km/h SSO 1016.8 hPa 0 mm
10 août 01:46 16.3°C 66% 3.7 km/h SE 1016.8 hPa 0 mm
10 août 01:45 16.4°C 66% 3.2 km/h ESE 1016.8 hPa 0 mm
10 août 01:44 16.4°C 66% 2.1 km/h S 1016.8 hPa 0 mm
10 août 01:43 16.5°C 66% 3.2 km/h ESE 1016.8 hPa 0 mm
10 août 01:42 16.5°C 66% 3.2 km/h SE 1016.8 hPa 0 mm
10 août 01:41 16.7°C 65% 2.6 km/h S 1016.7 hPa 0 mm
10 août 01:40 16.7°C 65% 2.1 km/h SSE 1016.7 hPa 0 mm
10 août 01:39 16.8°C 65% 1.1 km/h E 1016.7 hPa 0 mm
10 août 01:38 16.8°C 65% 0.0 km/h E 1016.7 hPa 0 mm
10 août 01:37 16.7°C 66% 0.0 km/h SE 1016.7 hPa 0 mm
10 août 01:36 16.8°C 66% 0.0 km/h ESE 1016.7 hPa 0 mm
10 août 01:35 16.8°C 66% 1.1 km/h SE 1016.7 hPa 0 mm
10 août 01:34 16.7°C 66% 1.1 km/h E 1016.7 hPa 0 mm
10 août 01:33 16.7°C 66% 1.6 km/h E 1016.7 hPa 0 mm
10 août 01:32 16.8°C 66% 1.1 km/h ESE 1016.7 hPa 0 mm
10 août 01:31 17.0°C 65% 1.1 km/h SE 1016.7 hPa 0 mm
10 août 01:30 17.0°C 64% 2.6 km/h E 1016.7 hPa 0 mm
10 août 01:29 16.9°C 64% 2.1 km/h E 1016.7 hPa 0 mm
10 août 01:28 16.7°C 64% 1.6 km/h SE 1016.7 hPa 0 mm
10 août 01:27 16.7°C 65% 1.6 km/h SE 1016.7 hPa 0 mm
10 août 01:26 16.6°C 65% 1.1 km/h ESE 1016.8 hPa 0 mm
10 août 01:25 16.6°C 66% 1.1 km/h E 1016.7 hPa 0 mm
10 août 01:24 16.6°C 66% 1.1 km/h E 1016.7 hPa 0 mm
10 août 01:23 16.6°C 66% 1.1 km/h SE 1016.7 hPa 0 mm
10 août 01:22 16.6°C 66% 1.1 km/h E 1016.7 hPa 0 mm
10 août 01:21 16.7°C 66% 2.6 km/h SE 1016.7 hPa 0 mm
10 août 01:20 16.8°C 65% 3.2 km/h E 1016.7 hPa 0 mm
10 août 01:19 16.8°C 65% 3.7 km/h SSO 1016.7 hPa 0 mm
10 août 01:18 16.8°C 65% 4.2 km/h SSE 1016.7 hPa 0 mm
10 août 01:17 16.8°C 65% 4.8 km/h S 1016.7 hPa 0 mm
10 août 01:16 16.8°C 65% 4.8 km/h SE 1016.7 hPa 0 mm
10 août 01:15 17.0°C 64% 4.8 km/h S 1016.7 hPa 0 mm
10 août 01:14 17.0°C 64% 4.2 km/h SE 1016.7 hPa 0 mm
10 août 01:13 17.0°C 64% 3.2 km/h S 1016.7 hPa 0 mm
10 août 01:12 17.0°C 63% 2.1 km/h SE 1016.6 hPa 0 mm
10 août 01:11 16.9°C 64% 1.1 km/h SE 1016.6 hPa 0 mm
10 août 01:10 16.9°C 65% 1.1 km/h E 1016.6 hPa 0 mm
10 août 01:09 16.8°C 65% 1.6 km/h SE 1016.6 hPa 0 mm
10 août 01:08 16.8°C 66% 3.2 km/h E 1016.6 hPa 0 mm
10 août 01:07 16.8°C 66% 3.7 km/h SE 1016.6 hPa 0 mm
10 août 01:06 17.1°C 64% 3.7 km/h SE 1016.6 hPa 0 mm
10 août 01:05 17.1°C 64% 3.7 km/h SSE 1016.6 hPa 0 mm
10 août 01:04 17.2°C 63% 2.1 km/h SE 1016.6 hPa 0 mm
10 août 01:03 17.1°C 64% 1.6 km/h ESE 1016.6 hPa 0 mm
10 août 01:02 17.1°C 64% 0.0 km/h SE 1016.6 hPa 0 mm
10 août 01:01 17.1°C 64% 0.5 km/h ENE 1016.6 hPa 0 mm
10 août 01:00 17.1°C 63% 0.5 km/h ESE 1016.6 hPa 0 mm
10 août 00:59 17.1°C 64% 1.1 km/h ESE 1016.6 hPa 0 mm
10 août 00:58 17.1°C 64% 1.6 km/h ENE 1016.6 hPa 0 mm
10 août 00:57 17.1°C 64% 1.6 km/h E 1016.6 hPa 0 mm
10 août 00:56 17.2°C 64% 1.6 km/h SE 1016.6 hPa 0 mm
10 août 00:55 17.3°C 64% 2.6 km/h SSE 1016.6 hPa 0 mm
10 août 00:54 17.5°C 63% 2.6 km/h ESE 1016.6 hPa 0 mm
10 août 00:53 17.6°C 63% 2.1 km/h ESE 1016.6 hPa 0 mm
10 août 00:52 17.8°C 62% 2.6 km/h SE 1016.6 hPa 0 mm
10 août 00:51 17.8°C 62% 2.1 km/h SE 1016.6 hPa 0 mm
10 août 00:50 17.7°C 62% 1.6 km/h ENE 1016.6 hPa 0 mm
10 août 00:49 17.8°C 63% 1.1 km/h SE 1016.6 hPa 0 mm
10 août 00:48 17.8°C 63% 1.1 km/h SE 1016.6 hPa 0 mm
10 août 00:47 18.0°C 63% 1.6 km/h E 1016.6 hPa 0 mm
10 août 00:46 18.2°C 62% 1.6 km/h ESE 1016.6 hPa 0 mm
10 août 00:45 18.6°C 60% 1.6 km/h ESE 1016.6 hPa 0 mm
10 août 00:44 18.6°C 60% 2.1 km/h E 1016.6 hPa 0 mm
10 août 00:43 18.3°C 60% 2.1 km/h E 1016.5 hPa 0 mm
10 août 00:42 17.6°C 63% 1.6 km/h E 1016.5 hPa 0 mm
10 août 00:41 17.4°C 64% 1.6 km/h SE 1016.5 hPa 0 mm
10 août 00:40 17.4°C 64% 1.6 km/h E 1016.5 hPa 0 mm
10 août 00:39 17.5°C 64% 1.1 km/h SE 1016.5 hPa 0 mm
10 août 00:38 17.5°C 64% 1.6 km/h ESE 1016.5 hPa 0 mm
10 août 00:37 17.6°C 64% 1.6 km/h E 1016.5 hPa 0 mm
10 août 00:36 17.6°C 64% 1.1 km/h E 1016.5 hPa 0 mm
10 août 00:35 17.6°C 64% 1.1 km/h E 1016.5 hPa 0 mm
10 août 00:34 17.6°C 63% 0.0 km/h SE 1016.6 hPa 0 mm
10 août 00:33 17.6°C 63% 0.0 km/h E 1016.6 hPa 0 mm
10 août 00:32 17.7°C 62% 0.0 km/h E 1016.6 hPa 0 mm
10 août 00:31 17.7°C 63% 1.1 km/h ESE 1016.6 hPa 0 mm
10 août 00:30 17.6°C 63% 1.1 km/h ESE 1016.6 hPa 0 mm
10 août 00:29 17.6°C 63% 1.1 km/h E 1016.6 hPa 0 mm
10 août 00:28 17.5°C 64% 1.6 km/h E 1016.6 hPa 0 mm
10 août 00:27 17.5°C 64% 1.6 km/h ESE 1016.6 hPa 0 mm
10 août 00:26 17.5°C 64% 1.6 km/h SSE 1016.6 hPa 0 mm
10 août 00:25 17.5°C 64% 0.0 km/h SE 1016.6 hPa 0 mm
10 août 00:24 17.6°C 64% 1.1 km/h E 1016.7 hPa 0 mm
10 août 00:23 17.6°C 64% 1.6 km/h E 1016.6 hPa 0 mm
10 août 00:22 17.6°C 64% 2.1 km/h ESE 1016.6 hPa 0 mm
10 août 00:21 17.8°C 63% 1.6 km/h SE 1016.6 hPa 0 mm
10 août 00:20 17.8°C 63% 2.1 km/h E 1016.7 hPa 0 mm
10 août 00:19 17.9°C 63% 2.1 km/h E 1016.6 hPa 0 mm
10 août 00:18 17.7°C 63% 2.6 km/h ESE 1016.7 hPa 0 mm
10 août 00:17 17.6°C 63% 2.1 km/h ESE 1016.6 hPa 0 mm
10 août 00:16 17.6°C 63% 0.0 km/h ESE 1016.6 hPa 0 mm
10 août 00:15 17.6°C 63% 0.5 km/h ESE 1016.6 hPa 0 mm
10 août 00:14 17.7°C 63% 2.1 km/h SSE 1016.6 hPa 0 mm
10 août 00:13 17.7°C 64% 1.6 km/h ESE 1016.6 hPa 0 mm
10 août 00:12 17.6°C 64% 1.1 km/h SE 1016.6 hPa 0 mm
10 août 00:11 17.6°C 64% 0.0 km/h ESE 1016.6 hPa 0 mm
10 août 00:10 17.6°C 65% 0.0 km/h SE 1016.6 hPa 0 mm
10 août 00:09 17.6°C 64% 0.0 km/h SE 1016.6 hPa 0 mm
10 août 00:08 17.6°C 64% 0.0 km/h ESE 1016.6 hPa 0 mm
10 août 00:07 17.6°C 63% 1.1 km/h SE 1016.6 hPa 0 mm
10 août 00:06 17.5°C 64% 1.6 km/h SE 1016.6 hPa 0 mm
10 août 00:05 17.5°C 64% 2.6 km/h SSE 1016.6 hPa 0 mm
10 août 00:04 17.5°C 64% 2.6 km/h SSE 1016.6 hPa 0 mm
10 août 00:03 17.6°C 64% 2.6 km/h SSE 1016.6 hPa 0 mm
10 août 00:02 17.6°C 64% 1.6 km/h ESE 1016.6 hPa 0 mm
10 août 00:01 17.7°C 63% 2.1 km/h E 1016.6 hPa 0 mm
10 août 00:00 17.7°C 63% 2.6 km/h ESE 1016.6 hPa 0 mm
09 août 23:59 17.7°C 63% 3.2 km/h SSE 1016.6 hPa 0 mm
09 août 23:58 17.7°C 63% 2.6 km/h ESE 1016.6 hPa 0 mm
09 août 23:57 17.8°C 63% 3.2 km/h S 1016.6 hPa 0 mm
09 août 23:56 17.8°C 63% 3.2 km/h SSE 1016.6 hPa 0 mm
09 août 23:55 17.9°C 63% 3.2 km/h SSE 1016.6 hPa 0 mm
09 août 23:54 18.1°C 62% 3.2 km/h S 1016.6 hPa 0 mm
09 août 23:53 18.1°C 62% 2.6 km/h SSE 1016.6 hPa 0 mm
09 août 23:52 18.1°C 61% 2.1 km/h S 1016.6 hPa 0 mm
09 août 23:51 18.1°C 62% 1.6 km/h E 1016.6 hPa 0 mm
09 août 23:50 18.1°C 62% 1.6 km/h ESE 1016.6 hPa 0 mm
09 août 23:49 18.1°C 62% 1.6 km/h E 1016.6 hPa 0 mm
09 août 23:48 18.1°C 62% 1.6 km/h ESE 1016.6 hPa 0 mm
09 août 23:47 18.2°C 62% 1.6 km/h ESE 1016.6 hPa 0 mm
09 août 23:46 18.3°C 61% 2.1 km/h E 1016.6 hPa 0 mm
09 août 23:45 18.3°C 61% 2.1 km/h SSE 1016.6 hPa 0 mm
09 août 23:44 18.2°C 62% 2.1 km/h SE 1016.6 hPa 0 mm
09 août 23:43 18.2°C 62% 2.1 km/h ESE 1016.6 hPa 0 mm
09 août 23:42 18.4°C 61% 1.1 km/h ESE 1016.6 hPa 0 mm
09 août 23:41 18.4°C 61% 1.6 km/h SE 1016.6 hPa 0 mm
09 août 23:40 18.4°C 61% 2.1 km/h S 1016.6 hPa 0 mm
09 août 23:39 18.5°C 61% 3.2 km/h S 1016.6 hPa 0 mm
09 août 23:38 18.6°C 60% 3.2 km/h SE 1016.6 hPa 0 mm
09 août 23:37 18.8°C 59% 2.6 km/h SE 1016.6 hPa 0 mm
09 août 23:36 18.8°C 60% 2.6 km/h SE 1016.6 hPa 0 mm
09 août 23:35 18.8°C 60% 2.1 km/h SSO 1016.6 hPa 0 mm
09 août 23:34 19.1°C 59% 2.6 km/h SE 1016.7 hPa 0 mm
09 août 23:33 19.1°C 59% 2.6 km/h SSE 1016.7 hPa 0 mm
09 août 23:32 19.2°C 58% 2.1 km/h SE 1016.7 hPa 0 mm
09 août 23:31 19.5°C 58% 2.1 km/h SE 1016.6 hPa 0 mm
09 août 23:30 19.6°C 58% 1.6 km/h SE 1016.6 hPa 0 mm
09 août 23:29 20.1°C 56% 1.6 km/h E 1016.6 hPa 0 mm
09 août 23:28 20.1°C 56% 1.1 km/h E 1016.7 hPa 0 mm
09 août 23:27 20.8°C 54% 1.6 km/h ESE 1016.6 hPa 0 mm
09 août 23:26 20.8°C 54% 0.0 km/h SE 1016.6 hPa 0 mm
09 août 23:25 21.1°C 53% 0.0 km/h ESE 1016.6 hPa 0 mm
09 août 23:24 21.5°C 51% 0.0 km/h SE 1016.6 hPa 0 mm
09 août 23:23 21.8°C 49% 0.0 km/h E 1016.6 hPa 0 mm
09 août 23:22 22.1°C 48% 0.5 km/h ESE 1016.6 hPa 0 mm
09 août 23:21 21.9°C 48% 0.5 km/h ESE 1016.6 hPa 0 mm
09 août 23:20 21.9°C 49% 1.1 km/h SE 1016.7 hPa 0 mm
09 août 23:19 21.7°C 50% 1.1 km/h SE 1016.7 hPa 0 mm
09 août 23:18 21.5°C 51% 0.0 km/h E 1016.7 hPa 0 mm
09 août 23:17 21.5°C 50% 0.0 km/h E 1016.7 hPa 0 mm
09 août 23:16 20.8°C 52% 0.0 km/h ESE 1016.7 hPa 0 mm
09 août 23:15 20.0°C 55% 0.0 km/h E 1016.7 hPa 0 mm
09 août 23:14 20.1°C 56% 0.0 km/h SE 1016.7 hPa 0 mm
09 août 23:13 20.1°C 56% 0.5 km/h ESE 1016.7 hPa 0 mm
09 août 23:12 20.1°C 56% 0.0 km/h ESE 1016.7 hPa 0 mm
09 août 23:11 20.3°C 55% 0.0 km/h SE 1016.7 hPa 0 mm
09 août 23:10 20.5°C 55% 0.0 km/h ENE 1016.7 hPa 0 mm
09 août 23:09 20.6°C 54% 0.0 km/h SE 1016.7 hPa 0 mm
09 août 23:08 20.6°C 54% 0.0 km/h SE 1016.7 hPa 0 mm
09 août 23:07 20.4°C 55% 1.6 km/h E 1016.7 hPa 0 mm
09 août 23:06 20.5°C 54% 1.1 km/h SSE 1016.6 hPa 0 mm
09 août 23:05 20.4°C 55% 0.0 km/h ESE 1016.7 hPa 0 mm
09 août 23:04 20.2°C 56% 0.0 km/h ESE 1016.7 hPa 0 mm
09 août 23:03 20.3°C 56% 0.0 km/h E 1016.7 hPa 0 mm
09 août 23:02 20.4°C 56% 0.0 km/h E 1016.7 hPa 0 mm
09 août 23:01 20.6°C 54% 0.5 km/h SE 1016.7 hPa 0 mm
09 août 23:00 20.6°C 54% 1.1 km/h ESE 1016.7 hPa 0 mm
09 août 22:59 20.3°C 55% 0.0 km/h E 1016.7 hPa 0 mm
09 août 22:58 20.1°C 56% 0.0 km/h E 1016.7 hPa 0 mm
09 août 22:57 20.3°C 58% 0.0 km/h SSE 1016.7 hPa 0 mm
09 août 22:56 20.3°C 58% 0.0 km/h SE 1016.8 hPa 0 mm
09 août 22:55 20.5°C 57% 0.5 km/h ESE 1016.8 hPa 0 mm
09 août 22:54 20.6°C 55% 0.5 km/h SE 1016.8 hPa 0 mm
09 août 22:53 20.8°C 54% 0.5 km/h SSE 1016.7 hPa 0 mm
09 août 22:52 20.8°C 54% 2.1 km/h E 1016.7 hPa 0 mm
09 août 22:51 20.8°C 54% 1.6 km/h SE 1016.8 hPa 0 mm
09 août 22:50 20.7°C 56% 0.0 km/h ESE 1016.8 hPa 0 mm
09 août 22:49 20.7°C 56% 0.0 km/h SE 1016.8 hPa 0 mm
09 août 22:48 20.7°C 56% 0.0 km/h E 1016.7 hPa 0 mm
09 août 22:47 20.8°C 55% 0.0 km/h E 1016.7 hPa 0 mm
09 août 22:46 20.8°C 55% 0.0 km/h E 1016.6 hPa 0 mm
09 août 22:45 20.8°C 55% 0.0 km/h E 1016.6 hPa 0 mm
09 août 22:44 20.6°C 56% 1.6 km/h E 1016.6 hPa 0 mm
09 août 22:43 20.6°C 56% 1.1 km/h ESE 1016.6 hPa 0 mm
09 août 22:42 21.1°C 54% 1.1 km/h ESE 1016.6 hPa 0 mm
09 août 22:41 21.1°C 54% 1.6 km/h NE 1016.6 hPa 0 mm
09 août 22:40 21.1°C 54% 1.1 km/h ENE 1016.6 hPa 0 mm
09 août 22:39 21.2°C 54% 1.1 km/h E 1016.6 hPa 0 mm
09 août 22:38 21.6°C 53% 0.5 km/h SE 1016.6 hPa 0 mm
09 août 22:37 21.6°C 53% 1.1 km/h ESE 1016.6 hPa 0 mm
09 août 22:36 21.6°C 53% 1.6 km/h E 1016.6 hPa 0 mm
09 août 22:35 21.6°C 52% 0.5 km/h SE 1016.6 hPa 0 mm
09 août 22:34 21.6°C 53% 0.0 km/h ESE 1016.6 hPa 0 mm
09 août 22:33 21.6°C 53% 0.0 km/h SE 1016.6 hPa 0 mm
09 août 22:32 22.0°C 50% 0.5 km/h ESE 1016.6 hPa 0 mm
09 août 22:31 22.0°C 50% 1.1 km/h E 1016.6 hPa 0 mm
09 août 22:30 22.2°C 50% 1.6 km/h E 1016.6 hPa 0 mm
09 août 22:29 22.2°C 50% 1.1 km/h ESE 1016.6 hPa 0 mm
09 août 22:28 22.3°C 49% 1.1 km/h SE 1016.6 hPa 0 mm
09 août 22:27 22.3°C 49% 1.1 km/h SE 1016.6 hPa 0 mm
09 août 22:26 22.4°C 49% 1.6 km/h ESE 1016.6 hPa 0 mm
09 août 22:25 22.7°C 49% 1.1 km/h E 1016.6 hPa 0 mm
09 août 22:24 22.7°C 49% 1.1 km/h ESE 1016.5 hPa 0 mm
09 août 22:23 22.9°C 49% 1.1 km/h ESE 1016.5 hPa 0 mm
09 août 22:22 23.0°C 47% 1.6 km/h SE 1016.5 hPa 0 mm
09 août 22:21 22.9°C 48% 2.1 km/h SE 1016.5 hPa 0 mm
09 août 22:20 22.9°C 48% 1.1 km/h E 1016.6 hPa 0 mm
09 août 22:19 22.9°C 48% 1.1 km/h ESE 1016.6 hPa 0 mm
09 août 22:18 23.1°C 47% 1.1 km/h E 1016.5 hPa 0 mm
09 août 22:17 23.1°C 47% 0.0 km/h SE 1016.5 hPa 0 mm
09 août 22:16 23.0°C 48% 1.1 km/h E 1016.5 hPa 0 mm
09 août 22:15 22.6°C 49% 1.1 km/h E 1016.5 hPa 0 mm
09 août 22:14 22.6°C 49% 1.1 km/h E 1016.5 hPa 0 mm
09 août 22:13 22.4°C 51% 1.1 km/h ESE 1016.5 hPa 0 mm
09 août 22:12 22.4°C 51% 1.6 km/h ESE 1016.5 hPa 0 mm
09 août 22:11 22.5°C 50% 1.6 km/h SE 1016.5 hPa 0 mm
09 août 22:10 22.5°C 50% 1.6 km/h SE 1016.5 hPa 0 mm
09 août 22:09 22.5°C 50% 1.6 km/h E 1016.5 hPa 0 mm
09 août 22:08 22.5°C 51% 2.1 km/h ESE 1016.5 hPa 0 mm
09 août 22:07 22.5°C 51% 1.6 km/h E 1016.5 hPa 0 mm
09 août 22:06 22.4°C 51% 2.1 km/h SE 1016.5 hPa 0 mm
09 août 22:05 22.4°C 51% 2.1 km/h ESE 1016.5 hPa 0 mm
09 août 22:04 22.4°C 51% 2.6 km/h SE 1016.6 hPa 0 mm
09 août 22:03 22.4°C 52% 2.1 km/h SSE 1016.6 hPa 0 mm
09 août 22:02 22.5°C 51% 2.1 km/h SE 1016.5 hPa 0 mm
09 août 22:01 22.8°C 51% 1.6 km/h ESE 1016.5 hPa 0 mm
09 août 22:00 22.8°C 51% 2.1 km/h SE 1016.5 hPa 0 mm
09 août 21:59 23.1°C 50% 1.6 km/h SSE 1016.5 hPa 0 mm
09 août 21:58 23.1°C 50% 1.6 km/h SSE 1016.5 hPa 0 mm
09 août 21:57 23.3°C 49% 2.1 km/h SE 1016.6 hPa 0 mm
09 août 21:56 23.6°C 48% 1.6 km/h S 1016.9 hPa 0 mm
09 août 21:55 23.6°C 48% 1.6 km/h SSE 1017.0 hPa 0 mm
09 août 21:54 23.8°C 47% 1.6 km/h E 1017.0 hPa 0 mm
09 août 21:53 23.8°C 47% 1.6 km/h ESE 1017.0 hPa 0 mm
09 août 21:52 23.9°C 47% 1.1 km/h SE 1017.0 hPa 0 mm
09 août 21:51 23.9°C 47% 1.1 km/h SE 1017.0 hPa 0 mm
09 août 21:50 24.0°C 47% 1.6 km/h S 1017.0 hPa 0 mm
09 août 21:49 24.0°C 47% 1.6 km/h ESE 1017.0 hPa 0 mm
09 août 21:48 24.1°C 47% 0.0 km/h E 1017.0 hPa 0 mm
09 août 21:47 24.3°C 46% 0.0 km/h N 1016.9 hPa 0 mm
09 août 21:46 24.4°C 45% 0.0 km/h N 1017.0 hPa 0 mm
09 août 21:45 24.5°C 45% 0.0 km/h N 1017.0 hPa 0 mm
09 août 21:44 24.6°C 45% 1.6 km/h NNE 1017.0 hPa 0 mm
09 août 21:43 24.7°C 45% 0.0 km/h O 1017.0 hPa 0 mm
09 août 21:42 24.7°C 45% 0.0 km/h N 1017.0 hPa 0 mm
09 août 21:41 24.8°C 45% 0.0 km/h ENE 1017.0 hPa 0 mm
09 août 21:40 24.8°C 44% 0.0 km/h E 1016.9 hPa 0 mm
09 août 21:39 24.8°C 45% 1.1 km/h NE 1016.9 hPa 0 mm
09 août 21:38 24.9°C 44% 0.0 km/h N 1016.6 hPa 0 mm
09 août 21:37 25.1°C 44% 1.6 km/h NNE 1016.4 hPa 0 mm
09 août 21:36 25.1°C 44% 2.1 km/h N 1016.4 hPa 0 mm
09 août 21:35 25.2°C 44% 2.1 km/h ESE 1016.3 hPa 0 mm
09 août 21:34 25.2°C 44% 3.2 km/h NNE 1016.3 hPa 0 mm
09 août 21:33 25.2°C 44% 1.6 km/h SE 1016.3 hPa 0 mm
09 août 21:32 25.3°C 44% 2.6 km/h NNE 1016.3 hPa 0 mm
09 août 21:31 25.3°C 44% 1.6 km/h NE 1016.3 hPa 0 mm
09 août 21:30 25.4°C 44% 4.2 km/h ENE 1016.3 hPa 0 mm
09 août 21:29 25.4°C 44% 3.2 km/h ENE 1016.3 hPa 0 mm
09 août 21:28 25.5°C 44% 2.1 km/h SE 1016.2 hPa 0 mm
09 août 21:27 25.6°C 44% 1.6 km/h S 1016.2 hPa 0 mm
09 août 21:26 25.6°C 43% 1.6 km/h NNE 1016.3 hPa 0 mm
09 août 21:25 25.7°C 43% 2.1 km/h ESE 1016.2 hPa 0 mm
09 août 21:24 25.7°C 43% 2.6 km/h E 1016.2 hPa 0 mm
09 août 21:23 25.7°C 43% 3.7 km/h NNE 1016.2 hPa 0 mm
09 août 21:22 25.7°C 43% 3.7 km/h NNE 1016.2 hPa 0 mm
09 août 21:21 25.7°C 43% 4.2 km/h ENE 1016.2 hPa 0 mm
09 août 21:20 25.5°C 44% 6.9 km/h E 1016.2 hPa 0 mm
09 août 21:19 25.7°C 44% 3.7 km/h NNE 1016.2 hPa 0 mm
09 août 21:18 25.8°C 44% 2.6 km/h SE 1016.2 hPa 0 mm
09 août 21:17 25.9°C 44% 1.6 km/h NNE 1016.2 hPa 0 mm
09 août 21:16 26.0°C 43% 2.6 km/h SE 1016.2 hPa 0 mm
09 août 21:15 26.1°C 43% 4.2 km/h N 1016.2 hPa 0 mm
09 août 21:14 26.1°C 43% 3.2 km/h NNE 1016.2 hPa 0 mm
09 août 21:13 26.1°C 43% 1.1 km/h NE 1016.2 hPa 0 mm
09 août 21:12 26.2°C 43% 1.6 km/h N 1016.2 hPa 0 mm
09 août 21:11 26.2°C 43% 0.0 km/h N 1016.2 hPa 0 mm
09 août 21:10 26.3°C 43% 0.5 km/h N 1016.2 hPa 0 mm
09 août 21:09 26.4°C 42% 0.0 km/h N 1016.2 hPa 0 mm
09 août 21:08 26.3°C 43% 2.6 km/h N 1016.1 hPa 0 mm
09 août 21:07 26.4°C 42% 1.6 km/h SO 1016.1 hPa 0 mm
09 août 21:06 26.5°C 42% 1.1 km/h NE 1016.1 hPa 0 mm
09 août 21:05 26.5°C 42% 1.1 km/h NNE 1016.1 hPa 0 mm
09 août 21:04 26.7°C 42% 1.6 km/h NNE 1016.1 hPa 0 mm
09 août 21:03 26.8°C 41% 1.1 km/h N 1016.1 hPa 0 mm
09 août 21:02 26.9°C 41% 1.6 km/h NNE 1016.1 hPa 0 mm
09 août 21:01 27.0°C 41% 4.2 km/h S 1016.2 hPa 0 mm
09 août 21:00 27.1°C 41% 3.2 km/h ENE 1016.1 hPa 0 mm
09 août 20:59 27.2°C 40% 3.2 km/h SSO 1016.1 hPa 0 mm
09 août 20:58 27.3°C 40% 1.1 km/h SSE 1016.2 hPa 0 mm
09 août 20:57 27.4°C 40% 2.6 km/h S 1016.1 hPa 0 mm
09 août 20:56 27.4°C 40% 1.6 km/h ESE 1016.1 hPa 0 mm
09 août 20:55 27.5°C 40% 2.6 km/h ESE 1016.1 hPa 0 mm
09 août 20:54 27.6°C 39% 1.6 km/h N 1016.1 hPa 0 mm
09 août 20:53 27.7°C 39% 1.6 km/h NNE 1016.1 hPa 0 mm
09 août 20:52 27.8°C 39% 2.6 km/h NNE 1016.1 hPa 0 mm
09 août 20:51 27.9°C 39% 1.6 km/h NNE 1016.1 hPa 0 mm
09 août 20:50 28.1°C 39% 3.2 km/h E 1016.1 hPa 0 mm
09 août 20:49 28.2°C 38% 4.8 km/h NE 1016.1 hPa 0 mm
09 août 20:48 28.2°C 38% 4.2 km/h NNE 1016.0 hPa 0 mm
09 août 20:47 28.4°C 38% 2.6 km/h NE 1016.0 hPa 0 mm
09 août 20:47 28.3°C 38% 5.3 km/h NNE 1016.1 hPa 0 mm
09 août 20:46 28.4°C 38% 4.2 km/h ENE 1016.1 hPa 0 mm
09 août 20:45 28.5°C 38% 5.3 km/h N 1016.0 hPa 0 mm
09 août 20:44 28.5°C 38% 4.8 km/h NE 1016.1 hPa 0 mm
09 août 20:43 28.6°C 38% 6.3 km/h ENE 1016.1 hPa 0 mm
09 août 20:42 28.6°C 38% 4.8 km/h NE 1016.0 hPa 0 mm
09 août 20:41 28.8°C 37% 4.8 km/h ESE 1016.0 hPa 0 mm
09 août 20:40 28.8°C 37% 3.7 km/h NE 1016.0 hPa 0 mm
09 août 20:39 28.8°C 37% 3.2 km/h NNE 1016.0 hPa 0 mm
09 août 20:38 28.8°C 37% 4.2 km/h NNE 1016.0 hPa 0 mm
09 août 20:37 28.9°C 37% 4.2 km/h NNE 1016.0 hPa 0 mm
09 août 20:36 28.9°C 37% 3.7 km/h E 1016.0 hPa 0 mm
09 août 20:35 28.9°C 37% 2.6 km/h E 1016.0 hPa 0 mm
09 août 20:34 28.9°C 37% 5.8 km/h NNE 1016.0 hPa 0 mm
09 août 20:33 28.9°C 37% 6.3 km/h NE 1016.0 hPa 0 mm
09 août 20:32 29.0°C 37% 2.6 km/h NE 1016.0 hPa 0 mm
09 août 20:31 29.1°C 37% 4.2 km/h NE 1016.0 hPa 0 mm
09 août 20:30 29.1°C 37% 4.2 km/h ENE 1016.0 hPa 0 mm
09 août 20:29 29.1°C 37% 4.2 km/h NE 1016.0 hPa 0 mm
09 août 20:28 29.2°C 37% 4.8 km/h E 1016.0 hPa 0 mm
09 août 20:27 29.2°C 37% 5.3 km/h ENE 1015.9 hPa 0 mm
09 août 20:26 29.2°C 37% 4.8 km/h ENE 1015.9 hPa 0 mm
09 août 20:25 29.2°C 37% 3.7 km/h NE 1015.9 hPa 0 mm
09 août 20:24 29.3°C 37% 5.8 km/h ENE 1015.9 hPa 0 mm
09 août 20:23 29.4°C 36% 5.3 km/h ENE 1016.0 hPa 0 mm
09 août 20:22 29.4°C 36% 4.2 km/h E 1015.9 hPa 0 mm
09 août 20:21 29.4°C 36% 5.3 km/h NNE 1015.9 hPa 0 mm
09 août 20:20 29.5°C 36% 5.3 km/h ESE 1015.9 hPa 0 mm
09 août 20:19 29.6°C 36% 8.4 km/h NNE 1015.9 hPa 0 mm
09 août 20:18 29.5°C 36% 6.9 km/h NNE 1015.8 hPa 0 mm
09 août 20:17 29.5°C 36% 6.3 km/h NNE 1015.8 hPa 0 mm
09 août 20:16 29.5°C 36% 5.3 km/h E 1015.8 hPa 0 mm
09 août 20:15 29.6°C 36% 10.6 km/h ENE 1015.8 hPa 0 mm
09 août 20:14 29.6°C 36% 5.3 km/h ENE 1015.8 hPa 0 mm
09 août 20:13 29.6°C 36% 5.3 km/h E 1015.8 hPa 0 mm
09 août 20:12 29.6°C 36% 7.9 km/h NE 1015.8 hPa 0 mm
09 août 20:11 29.7°C 36% 4.2 km/h ENE 1015.7 hPa 0 mm
09 août 20:10 29.7°C 36% 6.9 km/h NE 1015.8 hPa 0 mm
09 août 20:09 29.7°C 36% 11.1 km/h NE 1015.8 hPa 0 mm
09 août 20:08 29.7°C 36% 5.3 km/h SE 1015.8 hPa 0 mm
09 août 20:07 29.7°C 36% 9.0 km/h NE 1015.8 hPa 0 mm
09 août 20:06 29.8°C 36% 8.4 km/h E 1015.8 hPa 0 mm
09 août 20:05 29.8°C 36% 6.3 km/h ENE 1015.8 hPa 0 mm
09 août 20:04 29.8°C 35% 7.4 km/h E 1015.8 hPa 0 mm
09 août 20:03 29.8°C 35% 7.4 km/h SSE 1015.8 hPa 0 mm
09 août 20:02 29.9°C 35% 6.3 km/h E 1015.8 hPa 0 mm
09 août 20:01 29.9°C 35% 5.8 km/h ESE 1015.8 hPa 0 mm
09 août 20:00 29.9°C 35% 6.3 km/h SE 1015.8 hPa 0 mm
09 août 19:59 30.0°C 35% 8.4 km/h ESE 1015.8 hPa 0 mm
09 août 19:58 30.0°C 35% 9.0 km/h SSE 1015.8 hPa 0 mm
09 août 19:57 30.0°C 35% 9.5 km/h NNE 1015.8 hPa 0 mm
09 août 19:56 30.0°C 35% 10.6 km/h SE 1015.7 hPa 0 mm
09 août 19:55 30.0°C 35% 7.4 km/h E 1015.8 hPa 0 mm
09 août 19:54 30.1°C 35% 7.4 km/h E 1015.7 hPa 0 mm
09 août 19:53 30.1°C 35% 5.8 km/h SE 1015.7 hPa 0 mm
09 août 19:52 30.2°C 35% 7.4 km/h NE 1015.7 hPa 0 mm
09 août 19:51 30.2°C 35% 8.4 km/h E 1015.7 hPa 0 mm
09 août 19:50 30.3°C 35% 5.8 km/h NE 1015.7 hPa 0 mm
09 août 19:49 30.3°C 34% 9.0 km/h ESE 1015.7 hPa 0 mm
09 août 19:48 30.3°C 35% 9.5 km/h SSE 1015.7 hPa 0 mm
09 août 19:47 30.3°C 34% 6.9 km/h E 1015.7 hPa 0 mm
09 août 19:46 30.3°C 34% 7.4 km/h E 1015.6 hPa 0 mm
09 août 19:45 30.4°C 34% 9.0 km/h SO 1015.6 hPa 0 mm
09 août 19:44 30.4°C 34% 6.9 km/h SE 1015.6 hPa 0 mm
09 août 19:43 30.4°C 34% 5.3 km/h ENE 1015.6 hPa 0 mm
09 août 19:42 30.5°C 34% 4.8 km/h ENE 1015.6 hPa 0 mm
09 août 19:41 30.5°C 34% 4.8 km/h NNE 1015.6 hPa 0 mm
09 août 19:40 30.5°C 34% 6.3 km/h ENE 1015.6 hPa 0 mm
09 août 19:39 30.5°C 34% 7.4 km/h E 1015.6 hPa 0 mm
09 août 19:38 30.5°C 34% 7.4 km/h E 1015.6 hPa 0 mm
09 août 19:37 30.6°C 33% 9.5 km/h NE 1015.6 hPa 0 mm
09 août 19:36 30.6°C 33% 9.0 km/h NE 1015.6 hPa 0 mm
09 août 19:35 30.8°C 33% 11.1 km/h ENE 1015.6 hPa 0 mm
09 août 19:34 30.8°C 33% 7.9 km/h NNE 1015.6 hPa 0 mm
09 août 19:33 30.8°C 33% 6.3 km/h NNE 1015.7 hPa 0 mm
09 août 19:32 30.8°C 33% 6.9 km/h NE 1015.6 hPa 0 mm
09 août 19:31 30.8°C 33% 6.9 km/h NE 1015.6 hPa 0 mm
09 août 19:30 30.8°C 33% 7.4 km/h NE 1015.6 hPa 0 mm
09 août 19:29 30.9°C 33% 7.4 km/h NE 1015.6 hPa 0 mm
09 août 19:28 30.9°C 32% 6.3 km/h ENE 1015.6 hPa 0 mm
09 août 19:27 30.9°C 32% 5.8 km/h NE 1015.6 hPa 0 mm
09 août 19:26 30.9°C 32% 7.4 km/h SSE 1015.6 hPa 0 mm
09 août 19:25 30.9°C 32% 6.9 km/h E 1015.6 hPa 0 mm
09 août 19:24 30.9°C 32% 8.4 km/h ENE 1015.6 hPa 0 mm
09 août 19:23 31.0°C 32% 10.0 km/h E 1015.6 hPa 0 mm
09 août 19:22 31.1°C 32% 7.4 km/h SSE 1015.6 hPa 0 mm
09 août 19:21 31.2°C 32% 7.4 km/h E 1015.6 hPa 0 mm
09 août 19:20 31.1°C 32% 9.5 km/h E 1015.6 hPa 0 mm
09 août 19:19 31.1°C 32% 11.1 km/h SSE 1015.6 hPa 0 mm
09 août 19:18 31.2°C 32% 12.7 km/h E 1015.6 hPa 0 mm
09 août 19:17 31.1°C 32% 9.5 km/h E 1015.6 hPa 0 mm
09 août 19:16 31.1°C 32% 10.0 km/h SE 1015.6 hPa 0 mm
09 août 19:15 31.1°C 32% 9.0 km/h SE 1015.6 hPa 0 mm
09 août 19:14 31.2°C 32% 9.0 km/h NE 1015.6 hPa 0 mm
09 août 19:13 31.3°C 31% 12.1 km/h ESE 1015.6 hPa 0 mm
09 août 19:12 31.3°C 31% 10.6 km/h E 1015.6 hPa 0 mm
09 août 19:11 31.3°C 31% 8.4 km/h ENE 1015.6 hPa 0 mm
09 août 19:10 31.4°C 31% 9.5 km/h NE 1015.6 hPa 0 mm
09 août 19:09 31.5°C 31% 13.2 km/h E 1015.6 hPa 0 mm
09 août 19:08 31.2°C 31% 11.6 km/h SE 1015.6 hPa 0 mm
09 août 19:07 31.2°C 31% 9.5 km/h SE 1015.6 hPa 0 mm
09 août 19:06 31.3°C 31% 11.6 km/h SE 1015.6 hPa 0 mm
09 août 19:05 31.3°C 31% 11.6 km/h E 1015.6 hPa 0 mm
09 août 19:04 31.4°C 31% 12.7 km/h ESE 1015.6 hPa 0 mm
09 août 19:03 31.4°C 31% 9.5 km/h NE 1015.6 hPa 0 mm
09 août 19:02 31.5°C 31% 8.4 km/h ENE 1015.6 hPa 0 mm
09 août 19:01 31.5°C 31% 10.0 km/h NE 1015.6 hPa 0 mm
09 août 19:00 31.6°C 31% 9.0 km/h ESE 1015.6 hPa 0 mm
09 août 18:59 31.7°C 31% 7.9 km/h E 1015.6 hPa 0 mm
09 août 18:58 31.6°C 31% 6.3 km/h NNE 1015.6 hPa 0 mm
09 août 18:57 31.8°C 31% 8.4 km/h NE 1015.6 hPa 0 mm
09 août 18:56 31.8°C 30% 5.8 km/h SE 1015.6 hPa 0 mm
09 août 18:55 31.8°C 31% 6.9 km/h E 1015.7 hPa 0 mm
09 août 18:54 31.7°C 30% 10.6 km/h ESE 1015.6 hPa 0 mm
09 août 18:53 31.8°C 30% 11.6 km/h SSE 1015.7 hPa 0 mm
09 août 18:52 31.7°C 31% 11.6 km/h SE 1015.7 hPa 0 mm
09 août 18:51 31.7°C 31% 10.6 km/h ESE 1015.7 hPa 0 mm
09 août 18:50 31.7°C 30% 12.1 km/h NNE 1015.7 hPa 0 mm
09 août 18:49 31.9°C 31% 10.0 km/h E 1015.7 hPa 0 mm
09 août 18:48 31.9°C 30% 10.0 km/h NNE 1015.7 hPa 0 mm
09 août 18:47 32.1°C 30% 11.1 km/h NNE 1015.7 hPa 0 mm
09 août 18:46 32.2°C 30% 7.4 km/h NE 1015.8 hPa 0 mm
09 août 18:45 32.2°C 30% 7.4 km/h NE 1015.8 hPa 0 mm
09 août 18:44 32.2°C 30% 10.0 km/h SSE 1015.7 hPa 0 mm
09 août 18:43 32.1°C 30% 12.1 km/h S 1015.7 hPa 0 mm
09 août 18:42 31.9°C 30% 11.6 km/h ESE 1015.8 hPa 0 mm
09 août 18:41 31.9°C 30% 4.8 km/h SE 1015.8 hPa 0 mm
09 août 18:40 32.0°C 30% 5.3 km/h NE 1015.8 hPa 0 mm
09 août 18:39 31.9°C 30% 8.4 km/h SE 1015.8 hPa 0 mm
09 août 18:38 32.1°C 30% 9.5 km/h ESE 1015.8 hPa 0 mm
09 août 18:37 32.1°C 30% 9.5 km/h SSE 1015.8 hPa 0 mm
09 août 18:36 32.1°C 30% 10.0 km/h SE 1015.9 hPa 0 mm
09 août 18:35 32.1°C 30% 12.7 km/h S 1015.9 hPa 0 mm
09 août 18:34 32.1°C 30% 14.2 km/h E 1015.9 hPa 0 mm
09 août 18:33 32.1°C 30% 14.2 km/h NE 1015.8 hPa 0 mm
09 août 18:32 32.0°C 29% 10.6 km/h E 1015.9 hPa 0 mm
09 août 18:31 32.0°C 29% 5.3 km/h ESE 1015.8 hPa 0 mm
09 août 18:30 32.1°C 29% 4.8 km/h ENE 1015.8 hPa 0 mm
09 août 18:29 32.2°C 29% 8.4 km/h NE 1015.9 hPa 0 mm
09 août 18:28 32.2°C 29% 6.3 km/h S 1015.9 hPa 0 mm
09 août 18:27 32.0°C 30% 7.9 km/h ENE 1015.9 hPa 0 mm
09 août 18:26 32.0°C 30% 9.5 km/h N 1015.9 hPa 0 mm
09 août 18:25 31.9°C 30% 5.3 km/h SE 1015.9 hPa 0 mm
09 août 18:24 31.8°C 30% 6.9 km/h NNE 1015.9 hPa 0 mm
09 août 18:23 31.9°C 30% 15.3 km/h NE 1015.9 hPa 0 mm
09 août 18:22 31.9°C 30% 6.9 km/h NNE 1015.9 hPa 0 mm
09 août 18:21 32.1°C 29% 7.4 km/h NE 1015.9 hPa 0 mm
09 août 18:20 32.0°C 29% 15.8 km/h ESE 1015.9 hPa 0 mm
09 août 18:19 32.2°C 29% 16.4 km/h SE 1015.9 hPa 0 mm
09 août 18:18 32.4°C 29% 13.2 km/h E 1015.9 hPa 0 mm
09 août 18:17 32.4°C 29% 11.6 km/h ENE 1016.0 hPa 0 mm
09 août 18:16 32.3°C 29% 5.3 km/h ENE 1015.9 hPa 0 mm
09 août 18:15 32.3°C 29% 6.9 km/h NNE 1015.9 hPa 0 mm
09 août 18:14 32.1°C 29% 8.4 km/h NNE 1015.9 hPa 0 mm
09 août 18:13 32.2°C 29% 7.9 km/h NNE 1015.9 hPa 0 mm
09 août 18:12 32.2°C 28% 7.9 km/h ENE 1015.9 hPa 0 mm
09 août 18:11 32.2°C 28% 7.4 km/h NNE 1015.9 hPa 0 mm
09 août 18:10 32.4°C 28% 8.4 km/h NNE 1015.9 hPa 0 mm
09 août 18:09 32.4°C 28% 6.3 km/h NNE 1016.0 hPa 0 mm
09 août 18:08 32.3°C 28% 7.9 km/h NE 1016.0 hPa 0 mm
09 août 18:07 32.3°C 28% 6.9 km/h ENE 1015.9 hPa 0 mm
09 août 18:06 32.4°C 28% 7.4 km/h NE 1015.9 hPa 0 mm
09 août 18:05 32.6°C 28% 11.1 km/h NE 1015.9 hPa 0 mm
09 août 18:04 33.0°C 27% 17.9 km/h NNE 1015.9 hPa 0 mm
09 août 18:03 33.1°C 28% 17.9 km/h NE 1015.9 hPa 0 mm
09 août 18:02 33.1°C 28% 7.9 km/h SE 1015.9 hPa 0 mm
09 août 18:01 33.1°C 28% 6.3 km/h ESE 1015.9 hPa 0 mm
09 août 18:00 32.6°C 27% 6.9 km/h NNE 1016.0 hPa 0 mm
09 août 17:59 32.6°C 27% 12.1 km/h ENE 1016.0 hPa 0 mm
09 août 17:58 32.7°C 27% 10.0 km/h N 1016.0 hPa 0 mm
09 août 17:57 32.7°C 27% 11.1 km/h N 1016.0 hPa 0 mm
09 août 17:56 32.9°C 27% 10.0 km/h N 1016.0 hPa 0 mm
09 août 17:55 32.7°C 27% 12.1 km/h NNE 1016.1 hPa 0 mm
09 août 17:54 32.8°C 27% 8.4 km/h E 1016.1 hPa 0 mm
09 août 17:53 32.9°C 27% 9.0 km/h NNE 1016.1 hPa 0 mm
09 août 17:52 33.0°C 27% 5.3 km/h NNE 1016.1 hPa 0 mm
09 août 17:51 33.1°C 27% 2.1 km/h ENE 1016.1 hPa 0 mm
09 août 17:50 33.1°C 27% 3.2 km/h ENE 1016.1 hPa 0 mm
09 août 17:49 32.9°C 27% 4.2 km/h SE 1016.1 hPa 0 mm
09 août 17:48 32.9°C 27% 7.4 km/h S 1016.1 hPa 0 mm
09 août 17:47 32.7°C 28% 8.4 km/h SE 1016.1 hPa 0 mm
09 août 17:46 32.7°C 28% 9.0 km/h ENE 1016.2 hPa 0 mm
09 août 17:45 32.5°C 28% 10.6 km/h SSE 1016.1 hPa 0 mm
09 août 17:44 32.8°C 27% 14.8 km/h E 1016.2 hPa 0 mm
09 août 17:43 33.1°C 27% 9.5 km/h NE 1016.2 hPa 0 mm
09 août 17:42 33.1°C 27% 13.7 km/h NE 1016.2 hPa 0 mm
09 août 17:41 32.9°C 27% 6.3 km/h SSE 1016.2 hPa 0 mm
09 août 17:40 32.9°C 27% 7.9 km/h SE 1016.2 hPa 0 mm
09 août 17:39 33.0°C 27% 8.4 km/h SSO 1016.2 hPa 0 mm
09 août 17:38 33.0°C 27% 5.8 km/h SSE 1016.2 hPa 0 mm
09 août 17:37 33.0°C 27% 10.6 km/h ENE 1016.3 hPa 0 mm
09 août 17:36 33.0°C 27% 10.0 km/h SE 1016.3 hPa 0 mm
09 août 17:35 32.9°C 27% 9.0 km/h SSO 1016.3 hPa 0 mm
09 août 17:34 33.3°C 26% 6.9 km/h NNE 1016.3 hPa 0 mm
09 août 17:33 33.3°C 26% 6.3 km/h E 1016.3 hPa 0 mm
09 août 17:32 33.3°C 26% 9.0 km/h NNE 1016.3 hPa 0 mm
09 août 17:31 33.0°C 27% 8.4 km/h S 1016.3 hPa 0 mm
09 août 17:30 33.0°C 27% 8.4 km/h SE 1016.3 hPa 0 mm
09 août 17:29 32.6°C 27% 10.0 km/h S 1016.3 hPa 0 mm
09 août 17:28 32.2°C 27% 10.0 km/h SE 1016.3 hPa 0 mm
09 août 17:27 32.2°C 27% 9.5 km/h ENE 1016.3 hPa 0 mm
09 août 17:26 32.4°C 27% 10.6 km/h NE 1016.3 hPa 0 mm
09 août 17:25 32.4°C 27% 11.6 km/h NNE 1016.3 hPa 0 mm
09 août 17:24 32.2°C 28% 15.3 km/h NE 1016.3 hPa 0 mm
09 août 17:23 32.3°C 28% 11.1 km/h ENE 1016.3 hPa 0 mm
09 août 17:22 32.5°C 27% 7.4 km/h NNE 1016.4 hPa 0 mm
09 août 17:21 32.6°C 28% 7.9 km/h E 1016.4 hPa 0 mm
09 août 17:20 32.6°C 28% 6.3 km/h NE 1016.4 hPa 0 mm
09 août 17:19 32.5°C 27% 7.9 km/h ENE 1016.4 hPa 0 mm
09 août 17:18 32.5°C 28% 6.3 km/h E 1016.4 hPa 0 mm
09 août 17:17 32.5°C 28% 8.4 km/h NE 1016.4 hPa 0 mm
09 août 17:16 32.8°C 27% 13.2 km/h NNE 1016.4 hPa 0 mm
09 août 17:15 33.0°C 27% 9.5 km/h ENE 1016.4 hPa 0 mm
09 août 17:14 33.3°C 27% 12.1 km/h NE 1016.5 hPa 0 mm
09 août 17:13 33.1°C 28% 7.4 km/h S 1016.4 hPa 0 mm
09 août 17:12 33.3°C 28% 10.6 km/h ENE 1016.4 hPa 0 mm
09 août 17:11 33.1°C 27% 9.0 km/h ESE 1016.4 hPa 0 mm
09 août 17:10 33.2°C 27% 11.1 km/h S 1016.4 hPa 0 mm
09 août 17:09 33.5°C 27% 12.7 km/h NNE 1016.5 hPa 0 mm
09 août 17:08 33.6°C 27% 9.0 km/h ESE 1016.5 hPa 0 mm
09 août 17:07 33.5°C 27% 9.0 km/h SE 1016.5 hPa 0 mm
09 août 17:06 33.3°C 27% 11.6 km/h S 1016.5 hPa 0 mm
09 août 17:05 33.5°C 27% 9.0 km/h SSE 1016.5 hPa 0 mm
09 août 17:04 33.4°C 27% 9.5 km/h SSE 1016.5 hPa 0 mm
09 août 17:03 33.4°C 27% 10.0 km/h SE 1016.4 hPa 0 mm
09 août 17:02 33.5°C 26% 9.0 km/h SSO 1016.5 hPa 0 mm
09 août 17:01 33.2°C 26% 6.9 km/h SSE 1016.5 hPa 0 mm
09 août 17:00 33.5°C 26% 5.8 km/h S 1016.5 hPa 0 mm
09 août 16:59 33.5°C 26% 6.9 km/h SE 1016.5 hPa 0 mm
09 août 16:58 33.1°C 26% 8.4 km/h ESE 1016.5 hPa 0 mm
09 août 16:57 33.3°C 26% 9.5 km/h SO 1016.5 hPa 0 mm
09 août 16:56 32.8°C 26% 9.5 km/h SSO 1016.5 hPa 0 mm
09 août 16:55 32.8°C 26% 11.6 km/h SO 1016.5 hPa 0 mm
09 août 16:54 32.8°C 27% 5.8 km/h SSE 1016.5 hPa 0 mm
09 août 16:53 32.6°C 26% 3.2 km/h S 1016.5 hPa 0 mm
09 août 16:52 32.8°C 27% 5.3 km/h SSO 1016.5 hPa 0 mm
09 août 16:51 33.1°C 26% 7.9 km/h SO 1016.5 hPa 0 mm
09 août 16:50 33.1°C 26% 10.0 km/h SSO 1016.5 hPa 0 mm
09 août 16:49 33.4°C 25% 8.4 km/h ENE 1016.5 hPa 0 mm
09 août 16:48 33.6°C 23% 10.0 km/h E 1016.6 hPa 0 mm
09 août 16:47 33.6°C 23% 5.3 km/h NE 1016.5 hPa 0 mm
09 août 16:46 33.2°C 22% 4.8 km/h ENE 1016.5 hPa 0 mm
09 août 16:45 33.2°C 22% 5.3 km/h ESE 1016.5 hPa 0 mm
09 août 16:44 33.2°C 24% 4.8 km/h SSE 1016.6 hPa 0 mm
09 août 16:43 32.9°C 24% 5.8 km/h SE 1016.6 hPa 0 mm
09 août 16:42 33.3°C 24% 9.5 km/h SE 1016.6 hPa 0 mm
09 août 16:41 33.2°C 23% 10.6 km/h SSE 1016.6 hPa 0 mm
09 août 16:40 33.1°C 23% 7.9 km/h SSE 1016.6 hPa 0 mm
09 août 16:39 33.0°C 23% 6.3 km/h S 1016.6 hPa 0 mm
09 août 16:38 33.1°C 23% 7.4 km/h SSE 1016.6 hPa 0 mm
09 août 16:37 33.1°C 24% 9.5 km/h SO 1016.6 hPa 0 mm
09 août 16:36 33.1°C 22% 8.4 km/h S 1016.6 hPa 0 mm
09 août 16:35 33.0°C 23% 9.0 km/h S 1016.7 hPa 0 mm
09 août 16:34 33.0°C 23% 9.5 km/h S 1016.6 hPa 0 mm
09 août 16:33 32.4°C 24% 11.6 km/h SSE 1016.6 hPa 0 mm
09 août 16:32 32.4°C 24% 3.2 km/h E 1016.7 hPa 0 mm
09 août 16:31 32.5°C 24% 6.3 km/h ENE 1016.7 hPa 0 mm
09 août 16:30 32.4°C 25% 7.9 km/h NNE 1016.7 hPa 0 mm
09 août 16:29 32.4°C 25% 8.4 km/h NNE 1016.7 hPa 0 mm
09 août 16:28 32.2°C 25% 6.3 km/h NNE 1016.7 hPa 0 mm
09 août 16:27 32.4°C 25% 5.8 km/h ENE 1016.7 hPa 0 mm
09 août 16:26 32.4°C 25% 10.0 km/h NE 1016.7 hPa 0 mm
09 août 16:25 32.5°C 25% 12.1 km/h NNE 1016.7 hPa 0 mm
09 août 16:24 32.8°C 25% 7.4 km/h NNE 1016.7 hPa 0 mm
09 août 16:23 32.8°C 25% 9.5 km/h NNE 1016.7 hPa 0 mm
09 août 16:22 32.7°C 26% 8.4 km/h E 1016.7 hPa 0 mm
09 août 16:21 32.3°C 26% 6.9 km/h ESE 1016.7 hPa 0 mm
09 août 16:20 32.5°C 26% 9.5 km/h ENE 1016.7 hPa 0 mm
09 août 16:19 32.2°C 26% 11.1 km/h SE 1016.7 hPa 0 mm
09 août 16:18 32.2°C 26% 16.9 km/h E 1016.7 hPa 0 mm
09 août 16:17 32.0°C 26% 12.1 km/h SE 1016.8 hPa 0 mm
09 août 16:16 32.0°C 26% 11.6 km/h E 1016.8 hPa 0 mm
09 août 16:15 32.2°C 26% 7.4 km/h NNE 1016.8 hPa 0 mm
09 août 16:14 32.5°C 26% 10.0 km/h NNE 1016.8 hPa 0 mm
09 août 16:13 32.7°C 26% 8.4 km/h NE 1016.8 hPa 0 mm
09 août 16:12 33.0°C 26% 13.2 km/h NE 1016.8 hPa 0 mm
09 août 16:11 32.9°C 26% 4.8 km/h ESE 1016.8 hPa 0 mm
09 août 16:10 32.8°C 26% 7.9 km/h SO 1016.8 hPa 0 mm
09 août 16:09 32.7°C 26% 4.8 km/h ENE 1016.8 hPa 0 mm
09 août 16:08 32.6°C 26% 3.2 km/h SSE 1016.9 hPa 0 mm
09 août 16:07 32.2°C 26% 6.3 km/h ENE 1016.9 hPa 0 mm
09 août 16:06 32.2°C 26% 8.4 km/h NNE 1016.9 hPa 0 mm
09 août 16:05 32.2°C 26% 7.4 km/h NE 1016.9 hPa 0 mm
09 août 16:04 32.1°C 26% 5.3 km/h ENE 1016.9 hPa 0 mm
09 août 16:03 32.3°C 26% 7.4 km/h NE 1016.9 hPa 0 mm
09 août 16:02 32.5°C 26% 8.4 km/h NNE 1016.9 hPa 0 mm
09 août 16:01 32.6°C 25% 7.4 km/h NNE 1016.9 hPa 0 mm
09 août 16:00 33.1°C 25% 8.4 km/h NNE 1017.0 hPa 0 mm
09 août 15:59 33.0°C 26% 6.9 km/h NNE 1017.0 hPa 0 mm
09 août 15:58 32.8°C 26% 5.3 km/h E 1017.0 hPa 0 mm
09 août 15:57 32.8°C 26% 7.9 km/h SE 1017.0 hPa 0 mm
09 août 15:56 33.0°C 26% 8.4 km/h NNE 1017.0 hPa 0 mm
09 août 15:55 33.0°C 26% 10.6 km/h NE 1017.0 hPa 0 mm
09 août 15:54 32.7°C 27% 8.4 km/h S 1017.0 hPa 0 mm
09 août 15:53 32.5°C 26% 9.5 km/h S 1017.0 hPa 0 mm
09 août 15:52 32.0°C 27% 6.3 km/h E 1017.0 hPa 0 mm
09 août 15:51 32.0°C 27% 2.6 km/h ENE 1017.0 hPa 0 mm
09 août 15:50 32.0°C 26% 3.7 km/h E 1017.0 hPa 0 mm
09 août 15:49 32.5°C 27% 3.2 km/h E 1017.1 hPa 0 mm
09 août 15:48 32.6°C 26% 6.9 km/h NNE 1017.1 hPa 0 mm
09 août 15:47 33.0°C 26% 9.5 km/h NNE 1017.1 hPa 0 mm
09 août 15:46 33.2°C 27% 6.3 km/h NNE 1017.1 hPa 0 mm
09 août 15:45 33.0°C 27% 6.3 km/h SE 1017.1 hPa 0 mm
09 août 15:44 32.9°C 27% 3.2 km/h ESE 1017.1 hPa 0 mm
09 août 15:43 32.9°C 27% 6.9 km/h S 1017.1 hPa 0 mm
09 août 15:42 32.7°C 27% 10.6 km/h E 1017.1 hPa 0 mm
09 août 15:41 32.7°C 28% 11.6 km/h SE 1017.1 hPa 0 mm
09 août 15:40 32.0°C 28% 9.5 km/h S 1017.2 hPa 0 mm
09 août 15:39 32.0°C 28% 10.0 km/h NE 1017.1 hPa 0 mm
09 août 15:38 31.9°C 28% 9.0 km/h ENE 1017.1 hPa 0 mm
09 août 15:37 31.8°C 28% 8.4 km/h NNE 1017.2 hPa 0 mm
09 août 15:36 31.8°C 28% 10.6 km/h NE 1017.2 hPa 0 mm
09 août 15:35 31.7°C 28% 7.9 km/h E 1017.2 hPa 0 mm
09 août 15:34 31.4°C 28% 10.6 km/h ENE 1017.2 hPa 0 mm
09 août 15:33 31.4°C 28% 10.0 km/h NE 1017.3 hPa 0 mm
09 août 15:32 31.5°C 28% 13.7 km/h NE 1017.2 hPa 0 mm
09 août 15:31 31.6°C 28% 11.1 km/h NNE 1017.2 hPa 0 mm
09 août 15:30 31.9°C 28% 17.4 km/h NNE 1017.2 hPa 0 mm
09 août 15:29 32.2°C 28% 15.3 km/h NNE 1017.2 hPa 0 mm
09 août 15:28 32.4°C 28% 9.5 km/h NE 1017.1 hPa 0 mm
09 août 15:27 32.2°C 29% 9.5 km/h NE 1017.2 hPa 0 mm
09 août 15:26 32.1°C 29% 8.4 km/h ENE 1017.2 hPa 0 mm
09 août 15:25 32.1°C 29% 6.9 km/h E 1017.2 hPa 0 mm
09 août 15:24 31.8°C 29% 7.4 km/h NE 1017.2 hPa 0 mm
09 août 15:23 31.8°C 29% 10.0 km/h NE 1017.2 hPa 0 mm
09 août 15:22 32.1°C 29% 7.4 km/h E 1017.2 hPa 0 mm
09 août 15:21 32.1°C 29% 11.6 km/h NE 1017.2 hPa 0 mm
09 août 15:20 31.9°C 29% 7.4 km/h NNE 1017.2 hPa 0 mm
09 août 15:19 31.9°C 29% 8.4 km/h NE 1017.2 hPa 0 mm
09 août 15:18 32.2°C 29% 8.4 km/h NNE 1017.2 hPa 0 mm
09 août 15:17 32.1°C 29% 5.8 km/h NE 1017.3 hPa 0 mm
09 août 15:16 31.9°C 29% 9.5 km/h NE 1017.3 hPa 0 mm
09 août 15:15 31.9°C 29% 7.4 km/h NE 1017.3 hPa 0 mm
09 août 15:14 31.7°C 30% 7.9 km/h NE 1017.3 hPa 0 mm
09 août 15:13 31.5°C 30% 2.6 km/h NE 1017.3 hPa 0 mm
09 août 15:12 31.6°C 29% 3.2 km/h ENE 1017.3 hPa 0 mm
09 août 15:11 31.6°C 29% 5.8 km/h ENE 1017.3 hPa 0 mm
09 août 15:10 31.6°C 29% 5.3 km/h ESE 1017.3 hPa 0 mm
09 août 15:09 31.5°C 29% 3.7 km/h ESE 1017.4 hPa 0 mm
09 août 15:08 31.8°C 29% 7.4 km/h NE 1017.4 hPa 0 mm
09 août 15:07 32.3°C 29% 11.6 km/h NNE 1017.4 hPa 0 mm
09 août 15:06 32.2°C 29% 15.3 km/h ENE 1017.4 hPa 0 mm
09 août 15:05 32.0°C 30% 8.4 km/h ENE 1017.4 hPa 0 mm
09 août 15:04 31.8°C 30% 9.5 km/h ENE 1017.4 hPa 0 mm
09 août 15:03 31.9°C 30% 9.0 km/h ENE 1017.4 hPa 0 mm
09 août 15:02 31.9°C 30% 11.6 km/h ENE 1017.5 hPa 0 mm
09 août 15:01 31.8°C 30% 13.2 km/h E 1017.5 hPa 0 mm
09 août 15:00 31.8°C 30% 4.2 km/h ENE 1017.5 hPa 0 mm
09 août 14:59 31.6°C 30% 6.9 km/h ENE 1017.5 hPa 0 mm
09 août 14:58 31.5°C 31% 9.0 km/h ENE 1017.5 hPa 0 mm
09 août 14:57 31.4°C 30% 7.4 km/h SSE 1017.5 hPa 0 mm
09 août 14:56 31.3°C 31% 9.5 km/h ESE 1017.5 hPa 0 mm
09 août 14:55 31.3°C 31% 15.8 km/h N 1017.5 hPa 0 mm
09 août 14:54 31.2°C 31% 14.8 km/h E 1017.5 hPa 0 mm
09 août 14:53 31.2°C 31% 7.9 km/h ENE 1017.5 hPa 0 mm
09 août 14:52 31.5°C 31% 17.9 km/h NE 1017.5 hPa 0 mm
09 août 14:51 31.5°C 31% 16.9 km/h NE 1017.5 hPa 0 mm
09 août 14:50 31.5°C 31% 16.9 km/h ENE 1017.5 hPa 0 mm
09 août 14:49 31.5°C 31% 17.9 km/h NNE 1017.5 hPa 0 mm
09 août 14:48 31.5°C 31% 20.1 km/h ENE 1017.5 hPa 0 mm
09 août 14:47 31.3°C 31% 10.6 km/h ESE 1017.6 hPa 0 mm
09 août 14:46 31.6°C 31% 15.3 km/h NE 1017.6 hPa 0 mm
09 août 14:45 31.8°C 31% 7.4 km/h NE 1017.6 hPa 0 mm
09 août 14:44 31.6°C 33% 10.6 km/h E 1017.6 hPa 0 mm
09 août 14:43 31.6°C 33% 4.8 km/h SE 1017.6 hPa 0 mm
09 août 14:42 31.2°C 32% 5.8 km/h NNE 1017.7 hPa 0 mm
09 août 14:41 31.2°C 32% 6.9 km/h NE 1017.7 hPa 0 mm
09 août 14:40 31.6°C 32% 12.7 km/h NNE 1017.7 hPa 0 mm
09 août 14:39 31.5°C 32% 15.3 km/h ESE 1017.6 hPa 0 mm
09 août 14:38 31.6°C 32% 18.5 km/h ESE 1017.6 hPa 0 mm
09 août 14:37 31.4°C 33% 21.6 km/h ESE 1017.7 hPa 0 mm
09 août 14:36 31.4°C 33% 9.0 km/h E 1017.7 hPa 0 mm
09 août 14:35 31.0°C 33% 9.5 km/h NNE 1017.7 hPa 0 mm
09 août 14:34 31.0°C 33% 12.1 km/h NE 1017.8 hPa 0 mm
09 août 14:33 31.0°C 33% 12.7 km/h NNE 1017.8 hPa 0 mm
09 août 14:32 30.9°C 34% 13.7 km/h ENE 1017.9 hPa 0 mm
09 août 14:31 30.9°C 34% 6.9 km/h NE 1017.9 hPa 0 mm
09 août 14:30 30.7°C 33% 3.2 km/h E 1017.8 hPa 0 mm
09 août 14:29 30.9°C 33% 7.4 km/h S 1017.9 hPa 0 mm
09 août 14:28 31.2°C 33% 12.7 km/h S 1017.8 hPa 0 mm
09 août 14:27 31.8°C 32% 11.6 km/h SSE 1017.8 hPa 0 mm
09 août 14:26 31.8°C 32% 10.0 km/h S 1017.8 hPa 0 mm
09 août 14:25 31.7°C 33% 7.4 km/h S 1017.8 hPa 0 mm
09 août 14:24 31.7°C 33% 12.1 km/h NE 1017.8 hPa 0 mm
09 août 14:23 31.7°C 33% 16.4 km/h SO 1017.8 hPa 0 mm
09 août 14:22 31.5°C 34% 17.4 km/h SE 1017.8 hPa 0 mm
09 août 14:21 31.5°C 34% 14.2 km/h S 1017.8 hPa 0 mm
09 août 14:20 31.0°C 34% 9.5 km/h NNE 1017.8 hPa 0 mm
09 août 14:19 31.0°C 34% 9.0 km/h NE 1017.8 hPa 0 mm
09 août 14:18 30.9°C 35% 6.3 km/h E 1017.8 hPa 0 mm
09 août 14:17 30.9°C 35% 14.8 km/h ESE 1017.9 hPa 0 mm
09 août 14:16 30.5°C 34% 15.8 km/h SSE 1017.8 hPa 0 mm
09 août 14:15 30.5°C 34% 7.4 km/h NE 1017.9 hPa 0 mm
09 août 14:14 30.4°C 34% 2.6 km/h E 1017.9 hPa 0 mm
09 août 14:13 30.6°C 34% 6.9 km/h ENE 1017.9 hPa 0 mm
09 août 14:12 30.6°C 36% 7.9 km/h ENE 1017.9 hPa 0 mm
09 août 14:11 30.2°C 35% 7.9 km/h ENE 1017.9 hPa 0 mm
09 août 14:10 30.2°C 35% 4.8 km/h E 1017.9 hPa 0 mm
09 août 14:09 30.2°C 35% 3.7 km/h E 1017.9 hPa 0 mm
09 août 14:08 30.1°C 36% 3.7 km/h ESE 1017.9 hPa 0 mm
09 août 14:07 30.0°C 36% 6.9 km/h ESE 1017.9 hPa 0 mm
09 août 14:06 30.1°C 36% 11.6 km/h E 1017.9 hPa 0 mm
09 août 14:05 30.2°C 36% 14.2 km/h NE 1017.9 hPa 0 mm
09 août 14:04 30.2°C 36% 14.2 km/h NE 1017.9 hPa 0 mm
09 août 14:03 30.0°C 36% 10.0 km/h NE 1017.9 hPa 0 mm
09 août 14:02 29.9°C 36% 13.2 km/h NNE 1017.9 hPa 0 mm
09 août 14:01 30.0°C 36% 3.2 km/h ENE 1017.9 hPa 0 mm
09 août 14:00 30.0°C 36% 7.9 km/h N 1017.9 hPa 0 mm
09 août 13:59 30.1°C 36% 10.0 km/h NNE 1018.0 hPa 0 mm
09 août 13:58 30.1°C 36% 6.3 km/h NNE 1017.9 hPa 0 mm
09 août 13:57 30.2°C 36% 15.8 km/h ENE 1018.0 hPa 0 mm
09 août 13:56 30.3°C 36% 6.3 km/h ENE 1018.0 hPa 0 mm
09 août 13:55 30.0°C 36% 4.2 km/h ENE 1018.0 hPa 0 mm
09 août 13:54 30.3°C 35% 5.3 km/h ESE 1018.0 hPa 0 mm
09 août 13:53 30.5°C 35% 5.3 km/h SSE 1018.0 hPa 0 mm
09 août 13:52 30.4°C 36% 5.8 km/h SO 1018.0 hPa 0 mm
09 août 13:51 30.5°C 36% 11.1 km/h E 1018.0 hPa 0 mm
09 août 13:50 30.4°C 35% 9.5 km/h ENE 1018.0 hPa 0 mm
09 août 13:49 30.4°C 35% 11.6 km/h SSO 1018.1 hPa 0 mm
09 août 13:48 30.4°C 36% 13.2 km/h SSO 1018.0 hPa 0 mm
09 août 13:47 30.4°C 36% 15.3 km/h ENE 1018.1 hPa 0 mm
09 août 13:46 30.3°C 36% 15.3 km/h SE 1018.1 hPa 0 mm
09 août 13:45 30.1°C 36% 16.9 km/h S 1018.1 hPa 0 mm
09 août 13:44 29.7°C 37% 15.3 km/h SSE 1018.1 hPa 0 mm
09 août 13:43 29.8°C 36% 20.6 km/h E 1018.1 hPa 0 mm
09 août 13:42 29.8°C 36% 11.6 km/h NE 1018.1 hPa 0 mm
09 août 13:41 29.7°C 36% 12.1 km/h NE 1018.2 hPa 0 mm
09 août 13:40 30.2°C 35% 12.7 km/h NNE 1018.2 hPa 0 mm
09 août 13:39 30.4°C 36% 11.6 km/h NNE 1018.2 hPa 0 mm
09 août 13:38 30.4°C 36% 7.9 km/h E 1018.2 hPa 0 mm
09 août 13:37 30.3°C 37% 11.6 km/h SE 1018.2 hPa 0 mm
09 août 13:36 30.2°C 36% 10.6 km/h N 1018.2 hPa 0 mm
09 août 13:35 30.2°C 37% 15.3 km/h ESE 1018.1 hPa 0 mm
09 août 13:34 29.7°C 37% 16.4 km/h E 1018.2 hPa 0 mm
09 août 13:33 29.7°C 37% 14.2 km/h SE 1018.1 hPa 0 mm
09 août 13:32 29.7°C 37% 12.7 km/h ESE 1018.2 hPa 0 mm
09 août 13:31 29.6°C 37% 7.9 km/h E 1018.2 hPa 0 mm
09 août 13:30 29.3°C 38% 10.0 km/h NE 1018.2 hPa 0 mm
09 août 13:29 29.3°C 38% 10.0 km/h E 1018.2 hPa 0 mm
09 août 13:28 29.4°C 37% 9.5 km/h N 1018.2 hPa 0 mm
09 août 13:27 29.4°C 37% 12.7 km/h NNE 1018.2 hPa 0 mm
09 août 13:26 29.6°C 37% 12.1 km/h ENE 1018.2 hPa 0 mm
09 août 13:25 29.7°C 37% 2.6 km/h ESE 1018.2 hPa 0 mm
09 août 13:24 29.4°C 37% 3.2 km/h ESE 1018.2 hPa 0 mm
09 août 13:23 29.7°C 37% 7.4 km/h NE 1018.2 hPa 0 mm
09 août 13:22 29.7°C 37% 8.4 km/h NNE 1018.2 hPa 0 mm
09 août 13:21 29.5°C 37% 5.8 km/h NE 1018.2 hPa 0 mm
09 août 13:20 29.4°C 38% 9.0 km/h NNE 1018.2 hPa 0 mm
09 août 13:19 29.4°C 38% 6.9 km/h NE 1018.2 hPa 0 mm
09 août 13:18 29.4°C 38% 15.3 km/h ENE 1018.2 hPa 0 mm
09 août 13:17 29.4°C 37% 10.0 km/h NE 1018.2 hPa 0 mm
09 août 13:16 29.4°C 37% 12.1 km/h NNE 1018.2 hPa 0 mm
09 août 13:15 29.6°C 37% 6.9 km/h SSO 1018.2 hPa 0 mm
09 août 13:14 29.6°C 37% 6.3 km/h E 1018.3 hPa 0 mm
09 août 13:13 30.0°C 36% 10.0 km/h ESE 1018.3 hPa 0 mm
09 août 13:12 30.3°C 36% 13.2 km/h SSE 1018.2 hPa 0 mm
09 août 13:11 30.4°C 36% 10.6 km/h SO 1018.2 hPa 0 mm
09 août 13:10 30.5°C 37% 19.5 km/h OSO 1018.2 hPa 0 mm
09 août 13:09 30.2°C 37% 14.2 km/h SSE 1018.3 hPa 0 mm
09 août 13:08 30.2°C 37% 7.9 km/h SSO 1018.3 hPa 0 mm
09 août 13:07 30.1°C 38% 9.0 km/h SE 1018.3 hPa 0 mm
09 août 13:06 29.7°C 38% 4.2 km/h SSO 1018.3 hPa 0 mm
09 août 13:05 29.3°C 38% 2.6 km/h ESE 1018.4 hPa 0 mm
09 août 13:04 28.9°C 39% 2.6 km/h S 1018.3 hPa 0 mm
09 août 13:03 29.0°C 38% 7.9 km/h SSO 1018.4 hPa 0 mm
09 août 13:02 29.4°C 37% 13.7 km/h S 1018.4 hPa 0 mm
09 août 13:01 29.4°C 37% 11.1 km/h OSO 1018.4 hPa 0 mm
09 août 13:00 29.6°C 37% 7.9 km/h OSO 1018.4 hPa 0 mm
09 août 12:59 29.8°C 38% 14.2 km/h S 1018.3 hPa 0 mm
09 août 12:58 29.6°C 38% 14.8 km/h SE 1018.3 hPa 0 mm
09 août 12:57 29.5°C 38% 7.9 km/h S 1018.3 hPa 0 mm
09 août 12:56 29.7°C 38% 12.7 km/h S 1018.3 hPa 0 mm
09 août 12:55 29.8°C 38% 14.8 km/h E 1018.3 hPa 0 mm
09 août 12:54 29.7°C 38% 10.0 km/h SE 1018.4 hPa 0 mm
09 août 12:53 29.5°C 38% 11.1 km/h SE 1018.4 hPa 0 mm
09 août 12:52 29.2°C 39% 13.2 km/h NE 1018.5 hPa 0 mm
09 août 12:51 29.2°C 39% 3.2 km/h NE 1018.5 hPa 0 mm
09 août 12:50 28.7°C 40% 3.7 km/h ENE 1018.5 hPa 0 mm
09 août 12:49 28.7°C 40% 3.2 km/h E 1018.5 hPa 0 mm
09 août 12:48 28.5°C 39% 8.4 km/h S 1018.5 hPa 0 mm
09 août 12:47 28.3°C 40% 8.4 km/h S 1018.5 hPa 0 mm
09 août 12:46 28.2°C 40% 5.8 km/h SSO 1018.5 hPa 0 mm
09 août 12:45 28.3°C 40% 6.9 km/h E 1018.5 hPa 0 mm
09 août 12:44 28.3°C 40% 10.6 km/h SE 1018.5 hPa 0 mm
09 août 12:43 28.2°C 39% 10.0 km/h ESE 1018.5 hPa 0 mm
09 août 12:42 28.2°C 39% 3.2 km/h S 1018.5 hPa 0 mm
09 août 12:41 28.6°C 39% 4.2 km/h SSE 1018.6 hPa 0 mm
09 août 12:40 28.8°C 39% 5.3 km/h E 1018.6 hPa 0 mm
09 août 12:39 28.7°C 39% 5.8 km/h SSO 1018.6 hPa 0 mm
09 août 12:38 28.5°C 39% 7.9 km/h SO 1018.6 hPa 0 mm
09 août 12:37 28.6°C 39% 11.6 km/h SSO 1018.6 hPa 0 mm
09 août 12:36 28.5°C 40% 7.9 km/h SSE 1018.6 hPa 0 mm
09 août 12:35 28.4°C 39% 5.8 km/h S 1018.6 hPa 0 mm
09 août 12:34 28.3°C 40% 4.8 km/h SE 1018.6 hPa 0 mm
09 août 12:33 28.0°C 40% 8.4 km/h NE 1018.6 hPa 0 mm
09 août 12:32 28.0°C 40% 12.7 km/h SSE 1018.6 hPa 0 mm
09 août 12:31 28.2°C 40% 10.0 km/h ENE 1018.6 hPa 0 mm
09 août 12:30 28.2°C 40% 7.9 km/h NE 1018.6 hPa 0 mm
09 août 12:29 28.2°C 40% 13.2 km/h N 1018.6 hPa 0 mm
09 août 12:28 28.1°C 40% 13.7 km/h NNE 1018.6 hPa 0 mm
09 août 12:27 28.4°C 39% 15.8 km/h NE 1018.6 hPa 0 mm
09 août 12:26 28.4°C 39% 6.9 km/h NE 1018.7 hPa 0 mm
09 août 12:25 28.4°C 39% 8.4 km/h ENE 1018.6 hPa 0 mm
09 août 12:24 28.4°C 39% 11.1 km/h NNE 1018.7 hPa 0 mm
09 août 12:23 28.7°C 39% 11.6 km/h SSE 1018.7 hPa 0 mm
09 août 12:22 28.4°C 40% 11.6 km/h ESE 1018.7 hPa 0 mm
09 août 12:21 28.4°C 40% 9.0 km/h E 1018.7 hPa 0 mm
09 août 12:20 27.7°C 40% 10.0 km/h ENE 1018.7 hPa 0 mm
09 août 12:19 27.7°C 40% 10.6 km/h NE 1018.7 hPa 0 mm
09 août 12:18 27.7°C 41% 5.3 km/h E 1018.7 hPa 0 mm
09 août 12:17 28.0°C 39% 6.9 km/h ENE 1018.8 hPa 0 mm
09 août 12:16 28.0°C 39% 6.9 km/h E 1018.8 hPa 0 mm
09 août 12:15 28.4°C 39% 3.7 km/h ENE 1018.7 hPa 0 mm
09 août 12:14 28.4°C 39% 4.2 km/h SSE 1018.7 hPa 0 mm
09 août 12:13 28.4°C 39% 4.8 km/h ESE 1018.7 hPa 0 mm
09 août 12:12 28.4°C 39% 6.9 km/h SSO 1018.7 hPa 0 mm
09 août 12:11 28.3°C 39% 8.4 km/h SE 1018.7 hPa 0 mm
09 août 12:10 28.3°C 39% 6.9 km/h SE 1018.7 hPa 0 mm
09 août 12:09 28.2°C 40% 11.1 km/h ESE 1018.8 hPa 0 mm
09 août 12:08 28.2°C 40% 6.3 km/h S 1018.7 hPa 0 mm
09 août 12:07 28.2°C 40% 1.6 km/h NE 1018.7 hPa 0 mm
09 août 12:06 28.2°C 40% 5.8 km/h ENE 1018.7 hPa 0 mm
09 août 12:05 28.2°C 40% 4.8 km/h SE 1018.8 hPa 0 mm
09 août 12:04 28.2°C 39% 5.8 km/h SSO 1018.8 hPa 0 mm
09 août 12:03 28.3°C 40% 7.4 km/h E 1018.8 hPa 0 mm
09 août 12:02 28.1°C 40% 4.8 km/h ENE 1018.8 hPa 0 mm
09 août 12:01 27.9°C 40% 6.9 km/h ENE 1018.8 hPa 0 mm
09 août 12:00 27.7°C 41% 5.8 km/h SE 1018.8 hPa 0 mm
09 août 11:59 27.6°C 40% 5.3 km/h ENE 1018.8 hPa 0 mm
09 août 11:58 27.6°C 40% 10.0 km/h E 1018.8 hPa 0 mm
09 août 11:57 27.8°C 40% 6.3 km/h SE 1018.8 hPa 0 mm
09 août 11:56 28.0°C 40% 6.3 km/h ESE 1018.8 hPa 0 mm
09 août 11:55 28.1°C 40% 6.9 km/h SE 1018.8 hPa 0 mm
09 août 11:54 28.0°C 40% 3.7 km/h SSO 1018.8 hPa 0 mm
09 août 11:53 27.9°C 40% 2.1 km/h ESE 1018.8 hPa 0 mm
09 août 11:52 27.8°C 41% 4.2 km/h NE 1018.8 hPa 0 mm
09 août 11:51 27.5°C 42% 5.8 km/h ESE 1018.9 hPa 0 mm
09 août 11:50 27.2°C 42% 5.8 km/h SO 1018.9 hPa 0 mm
09 août 11:49 27.1°C 42% 3.7 km/h SE 1018.9 hPa 0 mm
09 août 11:48 26.7°C 42% 8.4 km/h SE 1018.9 hPa 0 mm
09 août 11:47 26.7°C 42% 4.2 km/h E 1018.9 hPa 0 mm
09 août 11:46 26.8°C 41% 7.4 km/h NE 1018.8 hPa 0 mm
09 août 11:45 27.0°C 41% 7.4 km/h E 1018.8 hPa 0 mm
09 août 11:44 27.2°C 42% 9.0 km/h ENE 1018.8 hPa 0 mm
09 août 11:43 27.2°C 42% 7.9 km/h ENE 1018.9 hPa 0 mm
09 août 11:42 27.1°C 41% 7.4 km/h SE 1018.8 hPa 0 mm
09 août 11:41 27.2°C 42% 7.4 km/h NE 1018.8 hPa 0 mm
09 août 11:40 27.2°C 42% 9.0 km/h NE 1018.9 hPa 0 mm
09 août 11:39 26.8°C 42% 6.3 km/h NE 1018.9 hPa 0 mm
09 août 11:38 26.5°C 42% 2.6 km/h ESE 1018.9 hPa 0 mm
09 août 11:37 26.5°C 42% 2.1 km/h ESE 1018.9 hPa 0 mm
09 août 11:36 26.4°C 42% 5.3 km/h ESE 1018.9 hPa 0 mm
09 août 11:35 26.7°C 41% 3.7 km/h ENE 1018.9 hPa 0 mm
09 août 11:34 26.7°C 42% 5.3 km/h NE 1018.9 hPa 0 mm
09 août 11:33 26.7°C 42% 7.4 km/h NNE 1019.0 hPa 0 mm
09 août 11:32 26.9°C 42% 9.0 km/h ENE 1018.9 hPa 0 mm
09 août 11:31 26.8°C 42% 10.6 km/h E 1018.9 hPa 0 mm
09 août 11:30 26.4°C 42% 8.4 km/h SO 1018.9 hPa 0 mm
09 août 11:29 26.4°C 42% 7.9 km/h NE 1019.0 hPa 0 mm
09 août 11:28 26.5°C 42% 6.3 km/h NNE 1019.0 hPa 0 mm
09 août 11:27 26.4°C 42% 9.0 km/h N 1019.0 hPa 0 mm
09 août 11:26 26.2°C 42% 7.4 km/h NNE 1019.0 hPa 0 mm
09 août 11:25 26.3°C 42% 5.8 km/h ENE 1019.0 hPa 0 mm
09 août 11:24 25.9°C 42% 3.7 km/h S 1019.0 hPa 0 mm
09 août 11:23 26.8°C 41% 3.7 km/h ESE 1019.0 hPa 0 mm
09 août 11:22 26.8°C 41% 3.2 km/h SE 1019.1 hPa 0 mm
09 août 11:21 26.8°C 41% 4.2 km/h NNE 1019.0 hPa 0 mm
09 août 11:20 26.7°C 43% 6.9 km/h SE 1019.0 hPa 0 mm
09 août 11:19 26.4°C 42% 3.2 km/h NE 1019.0 hPa 0 mm
09 août 11:18 26.5°C 42% 3.2 km/h E 1019.0 hPa 0 mm
09 août 11:17 26.5°C 42% 8.4 km/h SSO 1019.0 hPa 0 mm
09 août 11:16 26.6°C 42% 13.2 km/h S 1019.0 hPa 0 mm
09 août 11:15 26.7°C 42% 8.4 km/h SE 1018.9 hPa 0 mm
09 août 11:14 26.5°C 42% 12.7 km/h SE 1019.0 hPa 0 mm
09 août 11:13 26.2°C 42% 6.9 km/h E 1019.0 hPa 0 mm
09 août 11:12 26.2°C 42% 2.6 km/h E 1019.0 hPa 0 mm
09 août 11:11 26.2°C 42% 3.7 km/h SSE 1019.0 hPa 0 mm
09 août 11:10 26.2°C 42% 7.4 km/h SO 1019.0 hPa 0 mm
09 août 11:09 26.2°C 42% 11.6 km/h S 1019.0 hPa 0 mm
09 août 11:08 26.2°C 42% 7.4 km/h E 1019.0 hPa 0 mm
09 août 11:07 26.4°C 42% 7.9 km/h NE 1019.0 hPa 0 mm
09 août 11:06 26.4°C 42% 6.3 km/h ESE 1019.0 hPa 0 mm
09 août 11:05 26.4°C 42% 6.3 km/h ESE 1019.0 hPa 0 mm
09 août 11:04 26.3°C 42% 5.3 km/h E 1019.0 hPa 0 mm
09 août 11:03 26.4°C 42% 10.0 km/h E 1019.0 hPa 0 mm
09 août 11:02 26.3°C 43% 5.3 km/h NNE 1019.0 hPa 0 mm
09 août 11:01 26.0°C 43% 5.8 km/h ESE 1019.0 hPa 0 mm
09 août 11:00 26.0°C 43% 5.3 km/h S 1019.0 hPa 0 mm
09 août 10:59 26.1°C 43% 9.5 km/h SSE 1019.0 hPa 0 mm
09 août 10:58 26.0°C 43% 8.4 km/h S 1019.0 hPa 0 mm
09 août 10:57 25.9°C 43% 9.0 km/h SE 1019.0 hPa 0 mm
09 août 10:56 25.8°C 43% 6.3 km/h N 1019.1 hPa 0 mm
09 août 10:55 25.8°C 43% 4.8 km/h SSE 1019.0 hPa 0 mm
09 août 10:54 25.8°C 43% 9.5 km/h O 1019.0 hPa 0 mm
09 août 10:53 25.6°C 43% 10.0 km/h E 1019.1 hPa 0 mm
09 août 10:52 25.7°C 43% 7.9 km/h NE 1019.1 hPa 0 mm
09 août 10:51 25.8°C 43% 8.4 km/h N 1019.0 hPa 0 mm
09 août 10:50 25.8°C 43% 6.9 km/h NNE 1019.0 hPa 0 mm
09 août 10:49 25.6°C 44% 5.3 km/h E 1019.1 hPa 0 mm
09 août 10:48 25.6°C 44% 5.8 km/h E 1019.0 hPa 0 mm
09 août 10:47 25.6°C 44% 5.3 km/h ESE 1019.0 hPa 0 mm
09 août 10:46 25.2°C 44% 4.8 km/h SE 1019.1 hPa 0 mm
09 août 10:45 25.2°C 44% 5.3 km/h NNE 1019.0 hPa 0 mm
09 août 10:44 25.2°C 44% 7.9 km/h N 1019.0 hPa 0 mm
09 août 10:43 25.3°C 44% 7.4 km/h SE 1019.1 hPa 0 mm
09 août 10:42 25.1°C 44% 4.8 km/h ESE 1019.0 hPa 0 mm
09 août 10:41 25.1°C 44% 5.3 km/h E 1019.0 hPa 0 mm
09 août 10:40 25.0°C 45% 10.0 km/h ESE 1019.0 hPa 0 mm
09 août 10:39 25.0°C 45% 8.4 km/h E 1019.0 hPa 0 mm
09 août 10:38 24.9°C 44% 4.2 km/h NNE 1019.1 hPa 0 mm
09 août 10:37 24.9°C 44% 3.7 km/h ESE 1019.0 hPa 0 mm
09 août 10:36 24.9°C 44% 9.5 km/h ENE 1019.1 hPa 0 mm
09 août 10:35 25.0°C 45% 8.4 km/h S 1019.1 hPa 0 mm
09 août 10:34 25.0°C 44% 8.4 km/h SSO 1019.1 hPa 0 mm
09 août 10:33 24.9°C 45% 10.0 km/h SE 1019.0 hPa 0 mm
09 août 10:32 25.1°C 45% 10.0 km/h SE 1019.1 hPa 0 mm
09 août 10:31 25.2°C 45% 12.7 km/h SSO 1019.0 hPa 0 mm
09 août 10:30 25.1°C 45% 12.1 km/h SO 1019.1 hPa 0 mm
09 août 10:29 25.0°C 45% 9.5 km/h ESE 1019.1 hPa 0 mm
09 août 10:28 24.8°C 45% 9.0 km/h E 1019.0 hPa 0 mm
09 août 10:27 24.7°C 45% 7.9 km/h ESE 1019.1 hPa 0 mm
09 août 10:26 24.4°C 46% 8.4 km/h S 1019.1 hPa 0 mm
09 août 10:26 24.4°C 46% 11.1 km/h SSE 1019.1 hPa 0 mm
09 août 10:25 24.2°C 46% 11.1 km/h SE 1019.1 hPa 0 mm
09 août 10:24 24.2°C 46% 7.9 km/h NNE 1019.1 hPa 0 mm
09 août 10:23 24.1°C 46% 3.7 km/h NE 1019.1 hPa 0 mm
09 août 10:22 23.9°C 47% 3.7 km/h SE 1019.1 hPa 0 mm
09 août 10:21 23.8°C 47% 4.2 km/h NNE 1019.1 hPa 0 mm
09 août 10:20 24.1°C 46% 6.9 km/h NNE 1019.0 hPa 0 mm
09 août 10:19 24.3°C 47% 7.9 km/h NNE 1019.0 hPa 0 mm
09 août 10:18 24.0°C 47% 11.1 km/h ENE 1019.0 hPa 0 mm
09 août 10:17 24.0°C 47% 10.0 km/h SSE 1019.0 hPa 0 mm
09 août 10:16 24.0°C 47% 11.1 km/h E 1019.0 hPa 0 mm
09 août 10:15 23.8°C 47% 9.0 km/h SE 1019.1 hPa 0 mm
09 août 10:14 23.9°C 47% 7.9 km/h NNE 1019.0 hPa 0 mm
09 août 10:13 23.9°C 47% 5.8 km/h N 1019.1 hPa 0 mm
09 août 10:12 24.0°C 47% 8.4 km/h ENE 1019.1 hPa 0 mm
09 août 10:11 24.0°C 47% 10.0 km/h NNE 1019.1 hPa 0 mm
09 août 10:10 23.9°C 47% 16.4 km/h NNE 1019.1 hPa 0 mm
09 août 10:09 23.8°C 47% 10.6 km/h E 1019.1 hPa 0 mm
09 août 10:08 24.1°C 47% 9.5 km/h NE 1019.1 hPa 0 mm
09 août 10:07 24.1°C 48% 8.4 km/h SSO 1019.2 hPa 0 mm
09 août 10:06 23.9°C 48% 7.9 km/h ESE 1019.1 hPa 0 mm
09 août 10:05 23.8°C 48% 9.0 km/h SE 1019.1 hPa 0 mm
09 août 10:04 23.8°C 48% 7.9 km/h SE 1019.1 hPa 0 mm
09 août 10:03 23.6°C 49% 7.9 km/h ESE 1019.1 hPa 0 mm
09 août 10:02 23.5°C 48% 5.3 km/h SE 1019.1 hPa 0 mm
09 août 10:01 23.5°C 49% 6.9 km/h SSE 1019.1 hPa 0 mm
09 août 10:00 23.4°C 49% 4.8 km/h E 1019.1 hPa 0 mm
09 août 09:59 23.5°C 49% 5.3 km/h SE 1019.1 hPa 0 mm
09 août 09:58 23.4°C 49% 4.8 km/h S 1019.1 hPa 0 mm
09 août 09:57 23.4°C 49% 5.3 km/h E 1019.1 hPa 0 mm
09 août 09:56 23.3°C 49% 6.9 km/h S 1019.1 hPa 0 mm
09 août 09:55 23.1°C 50% 5.3 km/h E 1019.2 hPa 0 mm
09 août 09:54 22.9°C 50% 4.2 km/h SSE 1019.1 hPa 0 mm
09 août 09:53 22.6°C 51% 4.2 km/h ESE 1019.1 hPa 0 mm
09 août 09:52 22.6°C 51% 6.3 km/h SSO 1019.1 hPa 0 mm
09 août 09:51 22.4°C 51% 6.9 km/h SSE 1019.1 hPa 0 mm
09 août 09:50 22.5°C 50% 5.3 km/h E 1019.1 hPa 0 mm
09 août 09:49 22.5°C 51% 4.8 km/h NE 1019.1 hPa 0 mm
09 août 09:48 22.4°C 51% 6.3 km/h ESE 1019.1 hPa 0 mm
09 août 09:47 22.4°C 51% 6.3 km/h NNE 1019.1 hPa 0 mm
09 août 09:46 22.4°C 51% 6.3 km/h SSE 1019.1 hPa 0 mm
09 août 09:45 22.3°C 51% 7.4 km/h SO 1019.1 hPa 0 mm
09 août 09:44 22.2°C 52% 8.4 km/h SO 1019.1 hPa 0 mm
09 août 09:43 22.2°C 52% 6.3 km/h S 1019.1 hPa 0 mm
09 août 09:42 22.1°C 52% 6.3 km/h SSE 1019.1 hPa 0 mm
09 août 09:41 22.1°C 52% 7.9 km/h SSE 1019.2 hPa 0 mm
09 août 09:40 22.1°C 51% 5.3 km/h SE 1019.1 hPa 0 mm
09 août 09:39 22.2°C 52% 7.4 km/h SSE 1019.1 hPa 0 mm
09 août 09:38 22.1°C 52% 7.9 km/h SSE 1019.1 hPa 0 mm
09 août 09:37 22.1°C 52% 6.3 km/h SO 1019.1 hPa 0 mm
09 août 09:36 22.0°C 52% 7.9 km/h SO 1019.1 hPa 0 mm
09 août 09:35 21.9°C 52% 6.3 km/h SSO 1019.1 hPa 0 mm
09 août 09:34 21.9°C 53% 13.7 km/h SSE 1019.1 hPa 0 mm
09 août 09:33 21.7°C 52% 10.6 km/h S 1019.1 hPa 0 mm
09 août 09:32 21.7°C 52% 8.4 km/h OSO 1019.1 hPa 0 mm
09 août 09:31 21.6°C 53% 10.0 km/h S 1019.1 hPa 0 mm
09 août 09:30 21.6°C 53% 9.0 km/h SO 1019.0 hPa 0 mm
09 août 09:29 21.6°C 53% 10.6 km/h SE 1019.0 hPa 0 mm
09 août 09:28 21.6°C 53% 6.9 km/h SSO 1019.0 hPa 0 mm
09 août 09:27 21.6°C 53% 10.0 km/h O 1019.0 hPa 0 mm
09 août 09:26 21.6°C 53% 11.1 km/h SO 1019.1 hPa 0 mm
09 août 09:25 21.6°C 53% 10.6 km/h SO 1019.0 hPa 0 mm
09 août 09:24 21.6°C 53% 7.9 km/h S 1019.0 hPa 0 mm
09 août 09:23 21.6°C 53% 12.1 km/h SSO 1019.0 hPa 0 mm
09 août 09:22 21.5°C 53% 13.7 km/h S 1019.0 hPa 0 mm
09 août 09:21 21.5°C 53% 10.0 km/h SSO 1019.0 hPa 0 mm
09 août 09:20 21.5°C 53% 15.8 km/h SSO 1019.0 hPa 0 mm
09 août 09:19 21.4°C 54% 12.1 km/h SO 1019.0 hPa 0 mm
09 août 09:18 21.1°C 54% 9.0 km/h SE 1019.0 hPa 0 mm
09 août 09:17 21.1°C 54% 11.6 km/h SE 1019.0 hPa 0 mm
09 août 09:16 21.0°C 54% 11.1 km/h S 1019.0 hPa 0 mm
09 août 09:15 21.0°C 54% 15.3 km/h SSO 1019.0 hPa 0 mm
09 août 09:14 21.0°C 54% 15.3 km/h S 1019.0 hPa 0 mm
09 août 09:13 21.0°C 54% 10.0 km/h SO 1019.0 hPa 0 mm
09 août 09:12 21.1°C 54% 12.1 km/h SSO 1019.0 hPa 0 mm
09 août 09:11 21.0°C 54% 9.5 km/h SSO 1019.0 hPa 0 mm
09 août 09:10 21.1°C 54% 7.4 km/h SSO 1019.0 hPa 0 mm
09 août 09:09 21.1°C 54% 7.9 km/h SSE 1018.9 hPa 0 mm
09 août 09:08 21.2°C 54% 9.0 km/h SSO 1018.9 hPa 0 mm
09 août 09:07 21.2°C 54% 13.7 km/h SO 1018.9 hPa 0 mm
09 août 09:06 21.3°C 55% 11.1 km/h SO 1018.9 hPa 0 mm
09 août 09:05 21.2°C 55% 9.0 km/h S 1018.9 hPa 0 mm
09 août 09:04 21.1°C 55% 9.0 km/h S 1018.9 hPa 0 mm
09 août 09:03 21.0°C 55% 9.5 km/h S 1018.9 hPa 0 mm
09 août 09:02 21.0°C 55% 10.6 km/h SSO 1018.9 hPa 0 mm
09 août 09:01 20.9°C 56% 6.9 km/h SO 1018.9 hPa 0 mm
09 août 09:00 20.8°C 56% 7.4 km/h S 1018.9 hPa 0 mm
09 août 08:59 20.7°C 56% 6.9 km/h SSE 1018.9 hPa 0 mm
09 août 08:58 20.7°C 56% 9.0 km/h S 1018.9 hPa 0 mm
09 août 08:57 20.8°C 56% 8.4 km/h SSO 1018.8 hPa 0 mm
09 août 08:56 20.7°C 56% 5.3 km/h OSO 1018.8 hPa 0 mm
09 août 08:55 20.6°C 57% 5.8 km/h SE 1018.8 hPa 0 mm
09 août 08:54 20.6°C 56% 6.3 km/h O 1018.9 hPa 0 mm
09 août 08:53 20.6°C 56% 6.9 km/h S 1018.8 hPa 0 mm
09 août 08:52 20.5°C 57% 6.9 km/h SO 1018.8 hPa 0 mm
09 août 08:51 20.5°C 57% 10.0 km/h SO 1018.8 hPa 0 mm
09 août 08:50 20.5°C 57% 8.4 km/h SE 1018.8 hPa 0 mm
09 août 08:49 20.4°C 57% 7.4 km/h SSO 1018.8 hPa 0 mm
09 août 08:48 20.4°C 57% 5.8 km/h S 1018.7 hPa 0 mm
09 août 08:47 20.4°C 57% 7.4 km/h S 1018.8 hPa 0 mm
09 août 08:46 20.4°C 57% 7.4 km/h SSO 1018.7 hPa 0 mm
09 août 08:45 20.4°C 57% 4.2 km/h SSE 1018.7 hPa 0 mm
09 août 08:44 20.4°C 57% 6.3 km/h OSO 1018.7 hPa 0 mm
09 août 08:43 20.4°C 58% 7.4 km/h S 1018.7 hPa 0 mm
09 août 08:42 20.4°C 58% 5.3 km/h SO 1018.7 hPa 0 mm
09 août 08:41 20.3°C 58% 4.8 km/h SSE 1018.7 hPa 0 mm
09 août 08:40 20.2°C 58% 5.3 km/h SSE 1018.7 hPa 0 mm
09 août 08:39 20.2°C 57% 5.8 km/h SO 1018.7 hPa 0 mm
09 août 08:38 20.2°C 58% 3.7 km/h SSE 1018.7 hPa 0 mm
09 août 08:37 20.1°C 58% 3.2 km/h SSE 1018.6 hPa 0 mm
09 août 08:36 20.1°C 58% 3.7 km/h SSO 1018.7 hPa 0 mm
09 août 08:35 20.1°C 58% 4.8 km/h SSE 1018.7 hPa 0 mm
09 août 08:34 20.0°C 59% 6.3 km/h SO 1018.6 hPa 0 mm
09 août 08:33 20.0°C 59% 6.3 km/h OSO 1018.6 hPa 0 mm
09 août 08:32 20.0°C 59% 6.3 km/h SSO 1018.6 hPa 0 mm
09 août 08:31 19.9°C 59% 9.0 km/h S 1018.6 hPa 0 mm
09 août 08:30 19.9°C 59% 5.8 km/h SSO 1018.6 hPa 0 mm
09 août 08:29 19.9°C 60% 5.3 km/h SSO 1018.5 hPa 0 mm
09 août 08:28 19.8°C 60% 5.8 km/h SSO 1018.6 hPa 0 mm
09 août 08:27 19.8°C 60% 6.9 km/h SO 1018.6 hPa 0 mm
09 août 08:26 19.7°C 60% 7.9 km/h SSE 1018.6 hPa 0 mm
09 août 08:25 19.7°C 60% 4.8 km/h S 1018.6 hPa 0 mm
09 août 08:24 19.7°C 61% 6.9 km/h SSO 1018.6 hPa 0 mm
09 août 08:23 19.7°C 61% 5.3 km/h SSO 1018.6 hPa 0 mm
09 août 08:22 19.7°C 61% 2.6 km/h S 1018.5 hPa 0 mm
09 août 08:21 19.5°C 61% 3.2 km/h SSE 1018.5 hPa 0 mm
09 août 08:20 19.4°C 61% 4.2 km/h SO 1018.6 hPa 0 mm
09 août 08:19 19.4°C 61% 5.8 km/h SE 1018.6 hPa 0 mm
09 août 08:18 19.4°C 61% 6.3 km/h SSE 1018.5 hPa 0 mm
09 août 08:17 19.4°C 61% 4.8 km/h SSE 1018.6 hPa 0 mm
09 août 08:16 19.4°C 61% 3.2 km/h SSE 1018.5 hPa 0 mm
09 août 08:15 19.4°C 61% 3.2 km/h SSE 1018.6 hPa 0 mm
09 août 08:14 19.4°C 61% 2.6 km/h SSE 1018.5 hPa 0 mm
09 août 08:13 19.4°C 62% 3.2 km/h SE 1018.5 hPa 0 mm
09 août 08:12 19.4°C 62% 3.2 km/h SSE 1018.5 hPa 0 mm
09 août 08:11 19.4°C 61% 2.6 km/h S 1018.4 hPa 0 mm
09 août 08:10 19.2°C 62% 2.6 km/h SE 1018.4 hPa 0 mm
09 août 08:09 19.2°C 62% 2.1 km/h SE 1018.4 hPa 0 mm
09 août 08:08 19.1°C 62% 3.2 km/h SSE 1018.4 hPa 0 mm
09 août 08:07 19.0°C 63% 3.2 km/h SE 1018.4 hPa 0 mm
09 août 08:06 19.0°C 63% 4.8 km/h ESE 1018.4 hPa 0 mm
09 août 08:05 18.9°C 65% 4.8 km/h SE 1018.3 hPa 0 mm
09 août 08:04 18.6°C 65% 2.6 km/h S 1018.3 hPa 0 mm
09 août 08:03 18.6°C 67% 2.1 km/h SSE 1018.3 hPa 0 mm
09 août 08:02 18.4°C 67% 3.2 km/h S 1018.3 hPa 0 mm
09 août 08:01 18.3°C 67% 3.7 km/h SSE 1018.3 hPa 0 mm
09 août 08:00 18.2°C 67% 4.2 km/h SE 1018.3 hPa 0 mm
09 août 07:59 17.9°C 68% 4.2 km/h ESE 1018.3 hPa 0 mm
09 août 07:58 17.9°C 68% 4.2 km/h ESE 1018.3 hPa 0 mm
09 août 07:57 17.7°C 69% 3.7 km/h S 1018.3 hPa 0 mm
09 août 07:56 17.7°C 69% 3.2 km/h S 1018.3 hPa 0 mm
09 août 07:55 17.6°C 71% 4.8 km/h ESE 1018.3 hPa 0 mm
09 août 07:54 17.6°C 71% 4.2 km/h S 1018.3 hPa 0 mm
09 août 07:53 17.5°C 69% 3.7 km/h SE 1018.3 hPa 0 mm
09 août 07:52 17.2°C 69% 4.2 km/h SSE 1018.2 hPa 0 mm
09 août 07:51 17.0°C 69% 5.3 km/h S 1018.2 hPa 0 mm
09 août 07:50 16.7°C 70% 8.4 km/h SSE 1018.2 hPa 0 mm
09 août 07:49 16.4°C 72% 6.9 km/h SSE 1018.2 hPa 0 mm
09 août 07:48 16.1°C 73% 5.3 km/h S 1018.2 hPa 0 mm
09 août 07:47 15.9°C 74% 5.8 km/h SSE 1018.2 hPa 0 mm
09 août 07:46 15.7°C 75% 5.3 km/h ESE 1018.2 hPa 0 mm
09 août 07:45 15.6°C 76% 4.8 km/h S 1018.2 hPa 0 mm
09 août 07:44 15.6°C 76% 4.8 km/h SSO 1018.1 hPa 0 mm
09 août 07:43 15.6°C 76% 3.7 km/h S 1018.1 hPa 0 mm
09 août 07:42 15.5°C 76% 3.7 km/h SE 1018.1 hPa 0 mm
09 août 07:41 15.2°C 75% 3.7 km/h S 1018.1 hPa 0 mm
09 août 07:40 15.1°C 76% 3.7 km/h SSE 1018.1 hPa 0 mm
09 août 07:39 15.1°C 76% 3.7 km/h SSO 1018.1 hPa 0 mm
09 août 07:38 15.0°C 76% 3.7 km/h SE 1018.1 hPa 0 mm
09 août 07:37 15.0°C 77% 4.2 km/h S 1018.1 hPa 0 mm
09 août 07:36 15.0°C 77% 3.7 km/h S 1018.1 hPa 0 mm
09 août 07:35 15.0°C 77% 3.2 km/h S 1018.1 hPa 0 mm
09 août 07:34 15.1°C 76% 3.7 km/h S 1018.1 hPa 0 mm
09 août 07:33 15.0°C 76% 3.7 km/h S 1018.2 hPa 0 mm
09 août 07:32 14.9°C 77% 4.8 km/h E 1018.1 hPa 0 mm
09 août 07:31 14.9°C 77% 3.7 km/h S 1018.1 hPa 0 mm
09 août 07:30 14.8°C 77% 3.7 km/h E 1018.2 hPa 0 mm
09 août 07:29 14.8°C 77% 3.7 km/h S 1018.2 hPa 0 mm
09 août 07:28 14.6°C 78% 3.7 km/h ESE 1018.2 hPa 0 mm
09 août 07:27 14.6°C 78% 3.2 km/h SE 1018.2 hPa 0 mm
09 août 07:26 14.4°C 78% 4.2 km/h S 1018.2 hPa 0 mm
09 août 07:25 14.1°C 79% 3.2 km/h SSO 1018.2 hPa 0 mm
09 août 07:24 14.0°C 79% 4.2 km/h S 1018.2 hPa 0 mm
09 août 07:23 13.9°C 79% 3.7 km/h SE 1018.1 hPa 0 mm
09 août 07:22 13.8°C 80% 5.3 km/h S 1018.1 hPa 0 mm
09 août 07:21 13.7°C 80% 4.8 km/h SE 1018.1 hPa 0 mm
09 août 07:20 13.6°C 80% 5.8 km/h SE 1018.2 hPa 0 mm
09 août 07:19 13.6°C 80% 4.2 km/h SE 1018.2 hPa 0 mm
09 août 07:18 13.5°C 81% 4.2 km/h SE 1018.1 hPa 0 mm
09 août 07:17 13.4°C 81% 3.7 km/h SE 1018.1 hPa 0 mm
09 août 07:16 13.3°C 81% 6.3 km/h S 1018.1 hPa 0 mm
09 août 07:15 13.2°C 81% 7.4 km/h ESE 1018.1 hPa 0 mm
09 août 07:14 13.1°C 81% 4.2 km/h SE 1018.1 hPa 0 mm
09 août 07:13 13.0°C 81% 4.2 km/h S 1018.1 hPa 0 mm
09 août 07:12 13.0°C 81% 4.2 km/h SE 1018.1 hPa 0 mm
09 août 07:11 13.0°C 82% 4.8 km/h S 1018.1 hPa 0 mm
09 août 07:10 12.8°C 82% 4.8 km/h S 1018.1 hPa 0 mm
09 août 07:09 12.6°C 82% 5.3 km/h S 1018.1 hPa 0 mm
09 août 07:08 12.6°C 82% 4.8 km/h SSE 1018.0 hPa 0 mm
09 août 07:07 12.6°C 82% 4.8 km/h SE 1018.0 hPa 0 mm
09 août 07:06 12.5°C 82% 4.2 km/h S 1018.0 hPa 0 mm
09 août 07:05 12.5°C 83% 3.7 km/h S 1017.9 hPa 0 mm
09 août 07:04 12.4°C 82% 4.2 km/h S 1018.0 hPa 0 mm
09 août 07:03 12.4°C 82% 3.7 km/h SE 1018.0 hPa 0 mm
09 août 07:02 12.4°C 82% 3.7 km/h SSE 1017.9 hPa 0 mm
09 août 07:01 12.4°C 82% 3.7 km/h SE 1017.9 hPa 0 mm
09 août 07:00 12.4°C 82% 4.8 km/h S 1017.9 hPa 0 mm
09 août 06:59 12.4°C 82% 6.3 km/h S 1017.8 hPa 0 mm
09 août 06:58 12.4°C 82% 6.9 km/h ESE 1017.8 hPa 0 mm
09 août 06:57 12.5°C 81% 3.7 km/h SE 1017.8 hPa 0 mm
09 août 06:56 12.6°C 81% 5.8 km/h SE 1017.8 hPa 0 mm
09 août 06:55 12.8°C 80% 5.3 km/h SE 1017.8 hPa 0 mm
09 août 06:54 12.9°C 80% 6.9 km/h ESE 1017.8 hPa 0 mm
09 août 06:53 13.2°C 80% 8.4 km/h S 1017.8 hPa 0 mm
09 août 06:52 13.3°C 79% 6.9 km/h SE 1017.8 hPa 0 mm
09 août 06:51 13.3°C 80% 5.8 km/h S 1017.8 hPa 0 mm
09 août 06:50 13.3°C 80% 5.8 km/h ESE 1017.7 hPa 0 mm
09 août 06:49 13.4°C 80% 4.8 km/h ESE 1017.8 hPa 0 mm
09 août 06:48 13.3°C 80% 2.1 km/h ESE 1017.7 hPa 0 mm
09 août 06:47 13.1°C 81% 1.1 km/h SE 1017.7 hPa 0 mm
09 août 06:46 12.8°C 82% 1.6 km/h E 1017.7 hPa 0 mm
09 août 06:45 12.7°C 82% 3.2 km/h ESE 1017.7 hPa 0 mm
09 août 06:44 12.6°C 83% 3.2 km/h E 1017.6 hPa 0 mm
09 août 06:43 12.3°C 83% 1.6 km/h SE 1017.7 hPa 0 mm
09 août 06:42 12.2°C 82% 6.3 km/h SE 1017.7 hPa 0 mm
09 août 06:41 12.2°C 82% 6.3 km/h SE 1017.6 hPa 0 mm
09 août 06:40 12.2°C 82% 4.2 km/h SE 1017.6 hPa 0 mm
09 août 06:39 12.2°C 82% 5.3 km/h SSE 1017.6 hPa 0 mm
09 août 06:38 12.2°C 82% 5.3 km/h SSE 1017.6 hPa 0 mm
09 août 06:37 12.2°C 82% 5.3 km/h SSE 1017.6 hPa 0 mm
09 août 06:36 12.2°C 82% 5.3 km/h S 1017.6 hPa 0 mm
09 août 06:35 12.2°C 82% 4.8 km/h SSE 1017.6 hPa 0 mm
09 août 06:34 12.2°C 82% 3.7 km/h SE 1017.5 hPa 0 mm
09 août 06:33 12.1°C 82% 3.2 km/h SSE 1017.6 hPa 0 mm
09 août 06:32 12.2°C 82% 3.2 km/h SE 1017.6 hPa 0 mm
09 août 06:31 12.3°C 82% 3.2 km/h SE 1017.5 hPa 0 mm
09 août 06:30 12.3°C 82% 3.2 km/h S 1017.5 hPa 0 mm
09 août 06:29 12.3°C 82% 3.7 km/h SE 1017.5 hPa 0 mm
09 août 06:28 12.4°C 82% 3.2 km/h SSE 1017.4 hPa 0 mm
09 août 06:27 12.4°C 82% 2.6 km/h ESE 1017.5 hPa 0 mm
09 août 06:26 12.4°C 82% 2.1 km/h ESE 1017.4 hPa 0 mm
09 août 06:25 12.4°C 82% 2.6 km/h ESE 1017.4 hPa 0 mm
09 août 06:24 12.4°C 82% 2.1 km/h ESE 1017.5 hPa 0 mm
09 août 06:23 12.5°C 81% 3.7 km/h SSE 1017.4 hPa 0 mm
09 août 06:22 12.5°C 82% 2.1 km/h SSE 1017.4 hPa 0 mm
09 août 06:21 12.4°C 82% 2.6 km/h S 1017.4 hPa 0 mm
09 août 06:20 12.4°C 82% 2.1 km/h SSE 1017.4 hPa 0 mm
09 août 06:19 12.4°C 82% 2.6 km/h SE 1017.4 hPa 0 mm
09 août 06:18 12.4°C 81% 2.6 km/h SSE 1017.4 hPa 0 mm
09 août 06:17 12.4°C 81% 2.6 km/h SSE 1017.4 hPa 0 mm
09 août 06:16 12.5°C 81% 2.1 km/h S 1017.4 hPa 0 mm
09 août 06:15 12.5°C 81% 2.1 km/h S 1017.3 hPa 0 mm
09 août 06:14 12.4°C 81% 2.1 km/h SE 1017.3 hPa 0 mm
09 août 06:13 12.4°C 81% 1.6 km/h E 1017.3 hPa 0 mm
09 août 06:12 12.4°C 82% 1.6 km/h SE 1017.3 hPa 0 mm
09 août 06:11 12.4°C 82% 1.6 km/h E 1017.3 hPa 0 mm
09 août 06:10 12.4°C 82% 1.6 km/h ENE 1017.3 hPa 0 mm
09 août 06:09 12.4°C 82% 1.6 km/h SE 1017.3 hPa 0 mm
09 août 06:08 12.3°C 82% 0.0 km/h E 1017.3 hPa 0 mm
09 août 06:07 12.3°C 81% 0.0 km/h ESE 1017.3 hPa 0 mm
09 août 06:06 12.5°C 81% 1.1 km/h E 1017.3 hPa 0 mm
09 août 06:05 12.5°C 81% 1.1 km/h E 1017.3 hPa 0 mm
09 août 06:04 12.5°C 81% 0.5 km/h ENE 1017.3 hPa 0 mm
09 août 06:03 12.6°C 81% 1.1 km/h SE 1017.3 hPa 0 mm
09 août 06:02 12.6°C 80% 1.1 km/h ESE 1017.3 hPa 0 mm
09 août 06:01 12.7°C 80% 1.6 km/h ENE 1017.3 hPa 0 mm
09 août 06:00 12.7°C 80% 1.6 km/h E 1017.3 hPa 0 mm
09 août 05:59 12.8°C 80% 1.1 km/h SE 1017.3 hPa 0 mm
09 août 05:58 12.9°C 80% 1.6 km/h E 1017.3 hPa 0 mm
09 août 05:57 12.9°C 79% 1.1 km/h ENE 1017.3 hPa 0 mm
09 août 05:56 13.0°C 79% 1.6 km/h SE 1017.3 hPa 0 mm
09 août 05:55 13.0°C 79% 0.0 km/h SE 1017.3 hPa 0 mm
09 août 05:54 13.0°C 79% 0.0 km/h ESE 1017.3 hPa 0 mm
09 août 05:53 13.0°C 79% 0.0 km/h ESE 1017.3 hPa 0 mm
09 août 05:52 13.1°C 80% 0.0 km/h ENE 1017.3 hPa 0 mm
09 août 05:51 13.0°C 80% 0.0 km/h ENE 1017.3 hPa 0 mm
09 août 05:50 12.9°C 79% 0.0 km/h ESE 1017.3 hPa 0 mm
09 août 05:49 12.9°C 79% 0.5 km/h E 1017.3 hPa 0 mm
09 août 05:48 13.0°C 79% 1.6 km/h E 1017.3 hPa 0 mm
09 août 05:47 13.0°C 79% 1.6 km/h SE 1017.3 hPa 0 mm
09 août 05:46 13.1°C 80% 1.1 km/h E 1017.4 hPa 0 mm
09 août 05:45 13.1°C 80% 1.1 km/h SE 1017.3 hPa 0 mm
09 août 05:44 13.0°C 80% 1.6 km/h ESE 1017.3 hPa 0 mm
09 août 05:43 12.9°C 80% 1.1 km/h E 1017.3 hPa 0 mm
09 août 05:42 12.9°C 80% 1.6 km/h E 1017.3 hPa 0 mm
09 août 05:41 12.8°C 80% 2.1 km/h ESE 1017.3 hPa 0 mm
09 août 05:40 12.8°C 80% 1.6 km/h E 1017.3 hPa 0 mm
09 août 05:39 12.7°C 81% 2.6 km/h ESE 1017.3 hPa 0 mm
09 août 05:38 12.6°C 81% 2.6 km/h SE 1017.3 hPa 0 mm
09 août 05:37 12.6°C 81% 3.2 km/h S 1017.3 hPa 0 mm
09 août 05:36 12.6°C 81% 3.2 km/h SE 1017.3 hPa 0 mm
09 août 05:35 12.6°C 80% 3.2 km/h SSE 1017.3 hPa 0 mm
09 août 05:34 12.7°C 80% 4.2 km/h S 1017.2 hPa 0 mm
09 août 05:33 12.7°C 80% 3.2 km/h SSE 1017.2 hPa 0 mm
09 août 05:32 12.7°C 80% 3.2 km/h ESE 1017.3 hPa 0 mm
09 août 05:31 12.8°C 80% 2.6 km/h E 1017.2 hPa 0 mm
09 août 05:30 12.7°C 80% 2.1 km/h E 1017.2 hPa 0 mm
09 août 05:29 12.7°C 80% 2.6 km/h SE 1017.2 hPa 0 mm
09 août 05:28 12.7°C 80% 2.6 km/h SSE 1017.2 hPa 0 mm
09 août 05:27 12.7°C 80% 1.6 km/h SE 1017.2 hPa 0 mm
09 août 05:26 12.8°C 80% 1.6 km/h E 1017.2 hPa 0 mm
09 août 05:25 12.8°C 80% 2.1 km/h ESE 1017.2 hPa 0 mm
09 août 05:24 12.8°C 79% 1.6 km/h SE 1017.2 hPa 0 mm
09 août 05:23 12.8°C 79% 1.6 km/h E 1017.2 hPa 0 mm
09 août 05:22 12.9°C 79% 1.6 km/h E 1017.2 hPa 0 mm
09 août 05:21 12.9°C 79% 1.6 km/h E 1017.2 hPa 0 mm
09 août 05:20 12.9°C 79% 2.1 km/h ESE 1017.2 hPa 0 mm
09 août 05:19 12.9°C 79% 0.0 km/h ESE 1017.2 hPa 0 mm
09 août 05:18 12.9°C 79% 1.1 km/h E 1017.1 hPa 0 mm
09 août 05:17